ECMWFNIL_sfc_thetae_036.txt.gz
Theta_e
288 288 288 287 287 287 286 286 286 285 285 285 285 285 284 285 285 285 285 285 285 285 285 285 285 285 285 285 285 285 285 284 284 284 284 284 284 284 284 284 284 284
287 287 287 287 286 286 286 286 286 285 284 285 285 285 285 285 284 285 284 284 284 284 284 284 284 283 284 284 284 284 283 283 283 283 283 283 283 283 283 283 283 284
287 287 287 286 285 285 285 286 286 285 285 285 285 285 284 284 284 284 283 284 284 283 283 283 283 283 283 283 283 283 283 283 282 282 282 282 282 282 282 282 282 282
287 287 287 286 286 285 286 286 286 285 285 285 284 284 284 284 284 283 283 282 282 282 282 283 282 282 282 282 283 283 282 282 282 282 282 282 282 282 282 282 282 282
286 286 286 286 286 286 286 286 285 285 284 284 284 284 283 283 283 282 282 282 282 282 282 282 282 282 282 282 282 282 282 282 282 281 281 281 282 281 281 282 281 281
286 286 286 285 285 285 285 285 284 284 284 283 283 283 283 283 282 282 282 282 282 281 281 281 281 281 281 281 281 281 281 281 280 280 280 280 281 281 281 281 281 280
284 284 284 284 284 285 284 283 284 284 284 284 283 283 283 282 282 282 282 282 281 281 281 281 281 280 281 281 281 280 280 279 279 279 279 279 280 279 280 280 280 279
284 284 284 283 283 283 282 282 282 282 282 283 282 282 282 282 282 282 281 281 281 280 280 280 280 280 280 280 279 279 279 280 279 278 278 278 279 279 279 280 279 279
283 283 282 282 282 282 282 283 283 282 283 282 282 282 282 281 281 280 280 280 280 280 280 279 279 279 279 279 278 278 278 278 278 278 278 278 278 278 278 279 279 279
282 282 281 282 282 283 282 283 282 282 282 281 281 281 281 280 280 279 279 279 279 279 279 278 278 278 278 278 278 277 277 277 277 277 278 278 278 278 278 278 278 278
282 282 283 283 283 283 282 282 282 282 281 281 280 280 280 280 279 279 278 278 278 278 277 277 277 277 277 277 277 277 277 277 277 277 277 277 278 278 278 278 277 277
283 283 283 283 283 283 282 282 282 281 281 280 279 279 279 278 278 278 278 277 277 277 277 277 277 277 276 276 276 276 276 276 277 277 277 277 278 278 278 278 277 277
283 283 283 283 283 283 282 282 281 280 279 279 278 278 278 277 277 277 277 277 276 276 276 276 276 276 276 276 276 275 276 276 277 277 277 277 277 277 277 277 277 277
283 283 283 283 283 282 282 281 280 279 278 278 277 277 276 276 276 276 276 276 276 276 275 275 275 275 275 275 275 275 276 277 277 277 277 277 277 277 277 277 277 277
283 283 283 283 282 281 281 280 279 278 277 277 276 276 276 276 275 275 274 275 275 274 274 274 274 274 274 274 274 276 277 277 277 277 276 276 276 277 277 277 276 276
283 282 282 282 281 281 280 279 278 277 276 275 275 275 275 275 274 274 274 274 273 273 273 273 273 274 273 273 274 276 277 277 276 276 276 276 275 275 276 276 276 276
282 282 282 281 281 280 279 278 276 275 275 275 274 274 273 273 273 273 273 273 273 272 272 272 272 272 272 274 275 276 276 276 276 275 276 276 275 275 275 275 276 276
282 282 281 281 280 279 277 276 275 274 274 273 273 272 272 272 272 272 272 272 272 272 271 271 272 272 272 274 275 276 277 276 276 275 275 275 275 275 275 275 275 274
282 282 281 280 279 277 276 274 273 273 272 272 271 272 271 271 271 271 271 271 271 270 270 271 271 271 272 273 274 276 276 276 275 275 274 274 275 274 274 274 273 273
282 281 280 279 278 276 274 273 272 272 272 272 271 270 270 270 271 270 270 270 270 269 269 270 270 270 271 273 274 275 276 276 275 274 274 274 274 274 273 273 272 272
281 280 280 278 276 274 273 273 272 272 271 271 270 270 270 269 269 269 269 268 268 268 268 268 268 270 271 273 274 274 275 276 274 274 273 273 273 272 272 272 272 272
280 279 279 276 274 273 272 272 271 271 270 270 269 270 269 269 269 268 267 266 267 266 266 267 268 270 270 272 273 274 275 274 273 272 271 271 271 272 272 272 272 272
280 279 277 275 273 272 271 272 271 270 269 269 268 269 269 268 268 267 267 266 265 265 265 266 267 268 269 271 272 273 273 271 271 271 271 270 271 271 271 272 272 272
279 278 276 274 272 272 271 271 271 270 269 268 268 267 268 267 267 266 265 265 264 264 264 264 265 267 269 270 271 272 272 271 271 270 270 270 270 271 272 272 272 272
277 277 275 273 272 271 270 270 269 268 268 267 266 267 266 266 265 265 265 264 264 263 264 265 265 266 267 269 270 271 272 271 271 270 269 269 270 270 271 271 271 272
275 274 274 272 271 270 269 269 268 267 266 266 266 266 266 266 265 264 263 263 264 263 262 263 263 264 264 268 270 271 272 271 271 270 269 269 270 270 270 271 271 272

ECMWFNIL_sfc_thetae_039.txt.gz
Theta_e
292 292 291 290 290 290 289 289 289 288 287 287 286 286 286 287 287 287 287 287 287 286 287 286 286 286 287 286 287 286 285 285 284 285 285 285 285 285 285 284 285 284
291 291 290 290 289 289 289 289 288 288 287 287 287 286 286 286 287 287 286 286 286 286 286 285 285 285 285 285 285 285 284 284 284 285 284 284 284 285 284 284 284 283
290 289 289 288 288 288 288 288 288 288 287 287 287 286 286 286 286 286 286 285 285 284 285 285 284 284 284 284 285 285 284 284 283 284 284 284 284 283 283 284 283 284
289 289 289 288 288 288 288 288 287 287 286 286 286 286 286 286 285 284 284 284 284 284 284 284 284 284 284 284 285 284 284 284 283 283 283 284 284 283 283 283 283 283
289 288 288 288 288 288 288 287 286 287 286 285 285 285 284 285 284 284 283 283 284 283 283 283 283 283 283 283 284 283 283 283 283 282 282 282 283 282 282 282 281 281
288 288 288 288 287 287 287 287 286 286 285 285 285 285 285 285 284 283 283 283 283 283 283 283 283 282 283 282 283 282 282 281 281 281 280 280 281 282 282 282 281 280
287 287 287 287 287 287 286 286 286 286 285 285 285 284 284 284 283 283 283 283 283 283 283 282 282 282 282 282 282 281 281 281 280 280 279 280 280 280 281 281 280 280
286 286 286 286 286 286 285 285 285 285 285 284 283 284 284 284 283 284 283 283 282 282 282 282 281 281 281 280 280 280 280 282 281 279 279 279 279 279 280 281 280 279
285 285 285 285 284 284 284 284 284 284 284 284 283 283 283 283 283 282 282 282 281 281 281 281 281 280 280 280 279 279 279 279 280 278 278 278 278 278 279 279 279 279
284 284 284 283 283 283 282 283 283 283 284 284 283 283 282 282 282 281 281 281 280 280 280 280 280 280 279 279 279 278 278 278 278 278 278 278 278 278 278 278 278 278
283 283 283 283 283 283 283 283 283 283 283 282 282 282 281 281 281 280 280 280 280 279 279 279 279 279 278 278 278 278 277 277 277 277 277 278 278 278 278 278 278 277
282 282 282 282 283 283 283 283 283 282 282 282 282 281 280 280 280 280 279 279 279 278 278 278 278 278 277 277 277 277 277 277 277 277 277 278 278 278 278 278 277 277
282 282 282 283 284 284 283 283 282 282 281 280 280 280 279 279 279 278 279 278 278 278 277 277 277 277 277 277 277 277 276 276 277 277 278 278 278 278 278 278 278 277
283 283 283 284 284 284 283 283 282 281 280 280 279 279 278 278 278 278 278 278 277 277 277 277 276 276 277 277 276 276 276 276 277 277 278 278 278 278 278 278 277 277
284 284 284 284 283 283 283 282 281 280 279 279 279 279 279 278 278 277 277 277 277 276 276 276 275 275 276 276 275 276 277 277 277 277 277 277 277 277 277 277 277 277
284 284 284 283 283 282 282 281 280 279 279 278 278 278 277 277 277 276 276 276 276 276 275 275 275 276 275 275 275 275 276 277 277 277 277 276 276 276 276 277 277 277
284 283 283 283 283 282 282 280 279 279 278 278 277 277 276 276 276 275 275 275 275 275 275 275 275 275 275 276 276 277 277 276 276 276 276 276 275 275 275 276 276 276
284 284 283 283 282 282 281 280 279 278 278 277 276 276 275 275 275 275 275 275 275 274 274 274 274 275 276 276 276 277 277 276 276 276 275 275 275 275 275 275 275 275
284 284 283 283 282 282 280 279 278 277 276 276 275 276 275 274 274 274 274 274 274 273 273 274 273 275 275 276 276 277 277 277 276 276 275 275 275 275 275 275 275 275
284 283 283 283 282 281 280 278 277 276 276 276 275 275 274 274 274 273 274 273 273 273 272 273 273 274 275 275 276 276 277 277 276 275 275 275 275 275 275 274 274 273
284 284 283 283 282 280 279 277 277 276 276 275 274 274 273 273 273 272 272 272 272 271 271 271 272 274 274 275 276 276 277 277 275 275 275 274 274 274 274 274 273 273
284 283 283 282 281 279 278 277 276 276 275 275 274 274 274 274 273 273 271 271 270 270 269 269 270 273 274 275 275 276 276 275 274 274 273 273 273 273 273 273 273 273
284 283 283 282 281 279 277 277 276 275 275 274 272 273 273 272 271 271 271 270 269 268 268 268 269 271 273 274 274 275 275 273 273 272 271 271 271 272 272 272 272 272
284 283 282 281 280 278 277 277 276 275 274 273 272 272 272 271 271 270 269 269 268 267 268 267 268 270 272 273 274 274 274 272 271 271 271 271 271 272 272 272 273 274
284 283 282 281 279 279 277 276 275 274 273 272 272 272 271 271 270 269 268 268 267 267 268 267 266 268 271 272 273 274 273 272 271 270 270 270 270 271 272 272 272 273
283 282 281 280 279 278 277 276 275 273 271 271 270 271 270 270 268 268 267 267 267 265 264 266 266 266 267 271 272 273 273 272 271 270 269 270 270 270 270 271 272 272

ECMWFNIL_sfc_thetae_042.txt.gz
Theta_e
288 288 287 286 286 286 285 284 284 283 283 282 282 282 282 283 283 283 283 283 282 282 282 281 281 281 282 280 280 280 280 279 279 279 278 279 278 279 280 278 278 278
287 287 287 286 286 286 285 284 284 283 283 282 282 282 283 283 283 282 282 281 281 281 281 280 280 279 279 279 279 279 278 278 279 281 279 279 279 278 279 279 279 279
286 286 285 285 285 284 284 284 283 283 283 282 282 282 283 282 282 281 281 280 280 280 279 280 280 280 280 280 280 278 279 278 277 278 279 279 279 278 278 278 278 278
285 285 285 284 285 284 284 284 283 283 282 282 281 282 282 282 280 280 280 281 279 279 279 279 279 279 279 279 279 278 278 278 277 277 277 277 278 277 278 277 278 277
284 284 284 284 283 284 283 282 281 281 281 281 281 281 281 280 279 279 279 279 278 278 278 278 278 278 278 279 277 277 277 277 277 277 276 276 277 277 278 278 277 276
282 283 283 282 282 282 281 281 281 281 280 280 280 280 280 279 279 278 278 278 278 278 277 277 277 278 278 278 276 276 276 276 277 276 275 275 275 276 278 278 276 276
282 282 282 282 282 281 281 281 281 281 280 280 280 280 279 279 278 278 277 277 277 277 277 277 277 276 277 276 276 275 275 276 276 275 275 274 275 274 275 276 276 275
281 281 282 282 281 281 281 280 280 280 280 280 279 279 279 279 278 278 277 277 277 277 276 276 276 276 275 275 275 275 275 278 277 274 274 274 274 274 274 276 275 274
281 281 281 280 280 280 280 280 280 280 280 279 279 279 278 279 278 278 277 277 276 277 276 275 275 275 275 274 274 274 274 274 275 274 274 274 273 273 274 274 274 274
280 280 280 279 279 279 279 279 279 280 280 279 278 278 278 278 277 277 277 276 276 275 275 274 275 274 274 274 275 274 274 274 274 273 273 273 274 273 273 274 273 273
279 279 279 278 278 278 278 278 278 279 279 278 278 277 277 277 276 275 275 276 276 275 275 274 274 274 274 274 274 274 274 274 273 273 273 273 273 273 277 274 273 273
278 278 278 278 278 278 279 279 280 279 279 278 278 278 276 276 275 275 275 274 274 274 274 273 273 273 274 274 274 274 274 273 273 273 273 274 273 274 274 274 274 273
278 278 278 278 278 279 280 280 279 279 278 278 278 277 276 275 274 274 274 274 274 274 274 274 273 274 273 274 274 273 273 272 272 273 273 273 274 274 274 273 273 273
278 278 278 279 279 279 280 280 279 279 278 278 277 276 275 275 275 275 274 274 274 274 273 273 273 273 273 273 273 272 272 272 273 273 273 274 274 274 274 273 273 273
278 278 279 279 280 280 280 280 279 279 278 278 277 277 277 276 276 275 274 273 273 273 273 273 273 273 273 272 272 273 273 274 274 274 274 273 273 273 273 273 273 273
279 280 280 280 280 280 280 280 279 278 277 277 277 277 277 276 276 274 273 273 273 272 272 273 273 273 276 278 277 273 272 274 274 273 273 273 273 272 273 273 274 274
279 279 280 280 280 281 280 279 278 278 277 277 277 276 276 275 275 274 273 273 273 272 272 273 273 273 277 278 278 279 275 273 272 272 273 272 272 272 272 273 273 274
280 280 281 281 281 281 280 279 278 278 277 277 276 276 275 274 273 272 272 272 272 272 271 272 272 276 278 278 279 279 279 275 272 272 272 273 272 272 272 272 272 273
280 281 281 281 281 281 280 279 278 278 277 276 275 275 273 272 272 272 271 271 271 271 270 271 271 277 278 279 279 279 279 278 273 275 274 273 273 272 272 272 272 272
280 280 281 281 281 280 279 278 277 276 276 274 273 272 272 271 270 271 271 271 271 270 270 270 270 275 278 279 279 279 279 278 274 275 274 274 274 273 273 272 272 272
280 280 280 280 280 279 278 277 276 274 274 273 272 272 272 271 271 270 270 270 269 269 269 269 270 275 277 278 278 278 278 278 275 275 274 274 274 274 274 273 272 271
280 280 279 279 278 277 276 276 275 274 273 273 272 271 269 269 268 269 269 269 269 268 268 268 268 276 276 277 278 278 278 275 274 273 273 273 273 273 273 272 270 270
280 280 279 279 278 277 276 276 275 273 273 272 271 271 271 270 270 269 269 268 268 267 267 267 265 272 276 277 277 278 276 272 273 272 272 271 271 270 270 270 270 270
280 280 279 279 278 277 277 277 275 274 273 272 272 271 271 270 269 268 267 267 267 267 267 265 265 270 274 275 276 277 276 272 271 270 269 270 270 271 271 270 270 273
280 280 280 279 279 278 277 276 275 274 274 272 271 271 270 268 268 267 266 265 265 266 269 267 264 268 273 275 276 276 275 273 271 270 269 269 269 269 270 270 271 272
280 280 280 279 279 278 277 276 275 273 272 271 270 270 269 268 267 267 266 265 264 264 265 266 264 263 267 273 274 276 277 272 270 269 268 268 269 269 269 270 270 269

ECMWFNIL_sfc_thetae_045.txt.gz
Theta_e
285 285 284 283 283 283 282 282 281 281 281 281 281 281 281 281 282 281 281 281 280 280 280 280 280 280 280 279 279 279 279 279 279 278 278 278 278 278 279 277 277 277
285 285 284 283 283 283 282 282 282 282 281 281 281 281 281 281 281 281 280 280 279 279 279 279 280 280 279 279 279 279 279 279 278 280 279 278 277 277 277 277 278 277
285 284 284 283 283 283 282 282 282 281 281 281 281 281 281 281 280 279 279 279 279 279 279 279 279 279 280 279 279 279 278 277 277 277 277 277 277 277 276 276 276 277
285 284 284 283 283 283 282 282 281 281 281 281 281 281 282 281 280 279 279 280 279 279 279 279 279 279 279 278 278 278 277 277 276 276 276 276 277 276 277 276 277 276
283 283 283 283 282 282 282 281 280 280 280 280 280 280 280 279 279 279 279 278 279 279 279 279 278 278 277 277 277 277 277 277 276 275 276 275 276 276 277 276 276 276
282 283 283 282 282 282 281 281 280 280 280 280 280 280 279 279 279 278 278 278 278 278 278 277 277 276 277 277 276 276 276 276 275 275 274 274 275 275 277 276 274 275
282 282 281 281 281 281 280 280 280 280 280 280 279 279 279 278 279 279 278 278 278 278 277 277 276 276 276 276 276 275 276 275 274 274 273 273 274 274 274 274 274 274
281 281 281 281 280 280 280 279 279 279 279 279 279 279 279 279 278 278 278 277 277 277 277 276 276 276 275 275 275 275 275 277 274 273 272 273 273 273 273 275 273 273
281 281 281 280 280 279 279 279 279 279 279 279 279 279 278 278 278 278 278 278 277 277 277 276 275 275 275 274 274 274 274 273 274 272 272 272 273 273 273 273 273 273
280 280 280 280 279 279 279 279 279 279 279 279 279 278 278 278 278 278 278 278 277 276 275 275 275 274 274 274 274 273 273 273 272 272 272 272 272 272 272 273 273 273
280 280 280 279 279 279 279 279 279 279 278 278 278 278 278 278 278 278 277 277 277 275 275 274 274 274 274 274 274 273 273 273 272 272 272 272 272 272 276 273 273 273
280 279 279 279 279 279 279 279 279 278 278 278 278 278 278 279 278 277 277 277 276 275 274 274 274 274 274 273 273 273 272 272 272 272 272 272 272 273 273 273 273 273
279 279 279 279 279 279 279 278 278 278 278 278 278 278 278 278 277 277 277 276 276 275 274 274 274 274 273 273 273 273 272 272 271 271 272 272 273 273 273 273 273 273
279 279 279 279 278 278 278 278 278 278 278 278 278 278 278 277 277 277 276 276 275 275 275 275 274 273 273 273 273 272 272 271 271 271 272 273 273 273 273 273 273 273
279 278 278 278 278 278 278 278 278 278 278 279 279 278 278 277 277 276 276 276 275 275 275 275 274 274 274 273 272 272 272 272 272 272 272 272 273 272 273 273 272 272
278 278 278 278 278 278 278 278 278 278 278 278 278 278 277 277 276 276 276 276 275 275 275 274 273 273 276 279 278 273 273 273 273 272 271 272 272 271 271 272 272 272
278 278 277 278 278 278 278 278 278 278 278 278 277 277 277 276 276 276 276 276 275 275 273 273 272 273 278 281 280 279 273 272 272 271 271 271 271 271 270 271 271 272
278 277 277 278 278 278 278 278 278 278 278 278 277 277 276 276 275 275 275 275 274 273 272 272 272 277 280 281 282 281 279 273 271 270 270 271 271 271 271 271 271 271
278 278 277 278 278 278 278 278 278 278 277 277 276 276 276 275 275 275 274 273 272 271 271 271 271 278 280 282 282 282 282 277 271 272 271 270 271 271 271 271 270 271
278 278 278 278 278 278 278 278 277 278 278 277 277 276 276 275 275 274 273 271 271 271 271 270 270 277 281 282 282 282 281 280 271 272 271 272 273 272 271 271 271 270
278 278 278 278 278 278 277 277 277 277 277 277 276 276 275 274 273 272 271 270 270 269 269 270 270 277 281 281 282 282 281 280 272 273 273 273 274 273 272 271 271 271
278 278 278 278 278 277 277 277 277 277 276 276 275 275 274 272 269 268 270 269 269 268 268 269 269 278 280 281 281 281 281 274 272 272 272 272 272 272 272 272 271 270
279 278 278 277 277 277 276 277 277 275 276 275 274 274 272 271 271 270 270 270 269 268 268 269 267 275 279 280 281 281 280 271 271 271 271 271 270 270 270 270 270 269
279 279 278 278 277 277 277 277 277 276 275 273 273 272 272 271 270 269 268 269 268 268 269 268 267 272 279 280 280 281 278 271 271 271 270 270 269 269 269 269 270 273
279 278 278 278 277 278 277 277 276 275 274 272 273 273 272 271 269 269 267 266 267 268 271 269 267 270 277 279 280 280 278 270 270 269 269 268 267 267 269 269 269 271
279 279 278 278 278 278 277 277 276 274 273 273 272 272 271 269 269 269 268 267 266 266 267 269 266 265 270 278 279 280 280 272 270 269 268 268 267 267 266 266 268 268

ECMWFNIL_sfc_thetae_048.txt.gz
Theta_e
284 283 282 282 281 282 281 281 281 280 280 280 280 279 280 280 280 280 280 280 280 280 280 280 280 279 280 279 279 279 279 279 278 278 278 278 277 277 278 276 276 277
283 283 282 281 281 282 280 281 281 280 280 279 280 280 280 280 280 280 280 280 280 279 279 279 279 279 279 279 278 279 278 278 279 279 278 277 277 277 277 276 276 275
283 282 282 281 281 280 280 280 280 280 280 279 280 280 281 280 280 279 279 279 279 279 279 279 279 278 278 278 278 279 278 278 278 278 278 277 277 277 276 276 276 276
283 283 282 281 281 280 280 280 280 280 280 280 280 281 281 281 279 279 279 279 279 278 278 278 278 278 278 278 277 278 277 278 277 278 278 277 277 276 276 276 276 275
283 282 282 281 281 281 280 280 280 280 280 280 280 280 280 279 278 278 278 278 278 278 278 278 278 278 278 277 277 277 276 276 276 277 277 276 276 276 276 276 275 274
282 282 281 281 281 280 280 280 280 280 280 280 280 280 279 278 278 278 278 278 278 278 278 278 278 278 277 277 276 276 276 276 276 276 276 275 275 275 277 276 274 274
282 281 281 281 280 280 280 279 280 280 280 280 279 279 278 278 278 278 278 278 278 278 278 278 278 277 277 276 276 275 274 275 274 275 275 274 274 274 275 274 274 273
281 281 281 281 280 279 279 279 279 279 279 279 279 278 278 278 278 278 278 278 278 278 278 277 277 277 277 276 275 275 274 275 274 274 274 273 273 273 273 275 273 272
281 281 281 280 280 279 279 279 279 279 279 279 278 278 278 278 278 278 278 278 278 277 277 278 278 277 277 276 275 275 275 274 274 273 273 273 273 273 273 272 272 272
281 281 280 280 279 279 279 278 279 279 279 279 278 278 278 278 278 278 278 277 277 277 278 277 277 276 276 276 275 275 274 274 273 273 273 273 273 272 272 272 272 272
280 280 280 279 279 279 279 278 278 278 279 278 278 278 278 277 277 277 277 277 278 278 277 277 276 276 276 276 275 274 273 273 273 273 272 272 272 272 275 272 272 272
280 280 280 280 279 279 279 278 278 278 278 278 278 278 277 277 277 277 278 278 278 278 277 276 276 276 276 276 275 273 273 273 273 273 272 272 272 272 274 273 272 272
280 281 281 280 280 279 279 278 278 278 278 278 278 278 278 277 277 277 278 278 278 278 277 276 276 276 275 275 274 273 273 273 272 272 271 271 271 272 272 272 272 272
281 281 281 280 280 279 279 278 278 278 278 278 278 278 278 278 277 278 278 278 277 277 277 276 276 275 275 274 274 273 274 273 272 271 271 271 272 272 272 272 272 272
281 281 280 280 279 279 278 278 278 278 278 278 278 278 278 278 278 278 278 277 277 276 276 276 276 275 275 274 274 274 274 273 272 271 272 272 272 271 271 271 271 271
280 280 280 279 279 278 279 278 278 278 277 277 277 278 278 278 278 278 278 277 276 276 276 276 275 275 277 279 279 275 273 272 272 271 272 272 272 272 271 271 271 271
280 280 279 279 279 279 278 278 278 277 277 277 277 277 278 277 277 277 277 277 276 276 275 275 275 275 279 282 282 280 274 272 272 272 272 272 272 272 271 271 271 271
280 280 279 279 278 278 278 278 277 276 276 277 277 277 277 277 277 277 277 277 276 276 275 275 275 278 281 283 283 282 279 273 272 272 272 272 272 272 271 271 271 271
280 279 279 279 278 278 278 277 276 276 276 276 277 277 277 276 276 276 276 276 276 275 275 275 275 278 282 284 284 284 282 276 271 271 271 271 272 271 271 271 271 271
279 279 279 279 278 277 276 276 276 276 276 276 277 277 277 277 276 276 276 276 275 275 275 274 274 277 282 284 284 284 283 279 270 271 271 271 271 271 271 271 271 270
279 279 278 278 277 276 276 276 276 276 276 276 277 277 277 276 276 276 276 275 275 275 274 273 273 277 281 284 284 285 285 282 271 272 271 271 272 272 271 271 271 271
279 278 278 277 276 276 276 277 277 277 276 276 276 277 277 276 276 275 275 275 274 273 272 272 271 278 281 283 284 285 285 279 272 272 271 271 271 272 272 272 271 271
279 278 277 277 276 276 276 277 277 276 276 276 275 275 275 274 274 274 274 274 273 271 271 271 270 275 281 283 284 285 284 274 272 271 271 271 271 271 271 271 271 271
278 278 277 277 276 276 277 277 277 276 276 275 275 275 274 274 273 273 272 272 272 270 270 270 270 273 280 282 284 285 283 274 272 271 271 270 270 270 270 270 271 274
278 278 278 277 277 277 277 277 277 277 276 275 275 274 274 273 272 271 270 268 269 269 272 271 270 272 278 281 283 284 282 274 272 270 270 270 270 269 269 269 269 272
279 278 278 278 278 278 278 277 277 275 275 274 274 274 273 271 270 270 270 270 268 267 268 270 270 268 271 280 283 283 284 274 271 270 270 270 269 268 267 267 268 268

ECMWFNIL_sfc_thetae_051.txt.gz
Theta_e
285 284 284 283 283 283 281 281 281 281 281 281 281 280 280 280 280 280 280 280 280 280 279 280 280 279 280 279 279 279 279 278 278 278 277 278 277 277 278 277 276 277
283 284 283 283 282 282 281 281 281 281 280 280 280 280 280 280 280 280 280 280 280 279 279 279 279 279 279 279 278 278 278 278 278 279 278 277 277 277 277 276 276 276
283 282 282 281 281 281 281 280 280 280 280 279 279 280 280 280 280 280 280 280 279 279 279 279 278 278 278 278 278 278 278 278 278 277 278 277 277 277 277 276 276 276
282 282 282 281 281 281 281 280 280 279 279 279 279 280 281 281 280 279 279 280 279 278 278 278 278 278 278 278 278 278 278 278 277 277 277 277 276 277 276 276 277 276
281 281 281 281 281 281 280 280 279 279 279 279 279 280 280 280 279 279 279 278 278 278 278 277 277 277 277 277 277 277 277 277 277 276 277 276 276 276 276 276 275 275
281 281 281 280 280 280 280 280 280 280 279 279 280 280 280 280 279 279 278 278 277 278 277 277 277 277 277 277 277 277 277 277 276 276 276 276 275 276 276 275 275 274
281 280 280 280 279 280 280 280 279 280 280 280 280 280 279 279 278 278 278 278 277 278 277 277 277 277 277 276 277 276 277 276 275 275 275 274 275 275 275 274 274 274
281 280 280 280 279 279 279 279 279 280 280 279 279 279 278 278 278 278 278 278 278 277 277 277 277 277 276 276 277 276 276 276 275 275 275 274 274 274 274 275 273 273
281 280 280 279 279 279 279 279 279 279 279 279 279 278 278 278 278 278 278 278 278 278 277 277 277 277 277 277 277 277 276 275 275 275 274 273 273 273 273 273 272 273
280 280 280 279 279 279 279 279 279 279 279 279 279 278 277 277 277 278 278 278 278 277 277 277 277 278 278 277 277 276 276 276 275 275 275 274 273 273 273 273 272 272
280 280 280 279 279 279 278 278 278 279 279 279 278 278 277 277 277 278 278 278 278 277 278 278 278 278 277 277 277 277 276 275 275 274 274 273 273 273 274 273 272 272
280 280 280 280 280 279 279 278 279 279 279 279 278 278 277 277 277 278 278 278 278 278 279 279 278 277 277 277 277 276 276 275 275 274 274 273 272 272 273 272 272 272
281 280 280 280 280 280 279 278 278 279 279 278 278 278 277 277 278 278 278 278 278 279 279 278 278 277 277 277 276 276 275 275 274 274 274 273 272 272 273 273 272 272
281 281 280 280 280 280 279 279 278 278 278 278 278 278 278 278 278 278 278 278 279 279 278 278 277 277 277 276 276 275 275 275 275 274 273 273 273 273 273 272 272 272
281 281 280 280 280 280 279 279 279 279 279 278 278 278 279 279 279 279 278 278 278 278 278 277 277 277 277 276 276 275 275 275 275 274 274 273 273 273 273 272 271 272
281 281 281 281 280 280 280 279 279 278 278 278 279 279 279 279 278 279 279 278 278 277 277 277 277 277 278 280 279 276 275 275 275 274 274 273 273 272 272 272 272 272
282 281 281 281 280 280 280 279 279 279 279 279 279 279 278 278 279 278 278 279 278 277 277 276 277 277 280 282 282 281 277 275 275 274 273 273 273 272 272 272 272 272
282 281 281 280 280 280 280 280 280 279 278 278 278 278 278 279 278 278 278 278 278 277 277 277 276 279 281 282 283 283 281 276 275 274 273 273 272 272 272 272 272 272
281 281 281 280 280 280 280 280 279 279 278 278 278 278 278 278 278 278 278 278 277 277 277 277 276 280 282 283 284 284 284 279 274 274 273 273 272 272 272 272 271 271
280 281 280 280 280 280 280 279 279 278 279 279 278 278 278 278 278 278 278 277 277 277 277 276 276 280 283 283 284 285 285 282 274 274 272 272 272 272 272 272 272 271
280 280 280 280 280 280 279 279 279 278 278 278 278 278 278 278 278 277 277 277 277 277 276 276 276 280 282 284 284 285 286 284 273 272 271 271 272 272 272 272 272 272
280 280 280 280 280 279 278 279 278 278 278 278 278 278 278 278 278 278 278 277 277 276 276 275 276 281 282 283 284 286 286 282 273 272 271 271 271 271 272 272 271 271
280 280 280 280 279 278 278 278 278 278 278 278 277 278 278 278 277 278 278 277 276 276 275 275 275 279 282 283 284 286 286 279 273 272 271 270 271 271 272 272 271 271
280 280 280 279 279 278 278 279 279 279 278 278 277 277 277 277 277 277 276 276 275 274 274 274 274 277 281 283 283 285 285 279 275 274 273 272 271 272 271 272 272 274
280 280 280 279 279 279 279 279 279 278 278 277 277 277 277 276 275 275 274 273 274 274 275 274 274 275 280 282 283 284 284 280 276 274 273 273 272 272 271 271 271 273
280 280 280 280 279 279 279 279 279 277 277 277 276 276 276 275 274 274 274 273 272 272 272 273 273 272 274 280 282 284 285 281 275 274 273 273 272 272 271 269 270 269

ECMWFNIL_sfc_thetae_054.txt.gz
Theta_e
289 289 289 288 287 287 285 283 282 282 282 282 282 281 281 281 280 280 280 280 280 280 280 280 280 280 281 280 280 280 280 279 278 278 278 278 278 278 279 278 277 278
288 288 288 287 286 285 284 283 282 282 282 281 282 281 280 280 280 280 280 279 280 280 280 280 280 280 280 279 279 279 278 278 278 279 278 278 278 278 277 277 277 277
288 287 286 286 285 283 282 281 282 282 281 281 280 280 280 280 280 279 279 280 280 280 280 279 279 279 279 279 279 279 278 278 277 277 278 278 277 277 276 277 276 276
287 287 286 286 285 283 281 281 280 280 280 279 279 280 280 281 280 279 279 280 279 279 279 279 279 279 279 278 278 278 277 277 277 277 277 277 277 277 276 276 277 276
286 286 286 285 284 283 281 280 280 279 279 279 279 280 280 280 279 279 279 278 278 278 278 278 278 278 278 278 278 277 277 277 277 277 277 277 276 277 277 277 276 276
284 284 284 284 283 281 280 280 280 279 279 278 279 280 280 279 279 279 278 278 278 278 278 277 277 277 277 277 277 277 277 277 276 277 277 276 276 276 277 276 276 276
283 282 282 282 281 280 280 280 279 279 279 279 279 279 279 279 279 279 278 278 277 278 277 277 277 277 277 277 277 277 276 277 276 276 276 276 276 276 276 275 275 275
282 282 281 280 280 279 279 279 279 279 279 279 279 279 279 279 279 278 277 277 277 277 277 277 277 277 276 277 277 276 276 277 276 276 276 276 277 276 275 275 275 274
282 281 280 279 279 279 279 278 278 278 278 279 279 279 279 279 278 278 277 277 277 278 277 277 277 277 276 276 277 277 277 277 277 277 276 276 276 276 275 274 273 273
282 281 279 279 279 279 279 278 278 278 278 279 279 278 278 278 277 278 277 278 278 277 277 276 276 276 276 277 277 278 278 278 277 276 276 277 277 276 275 274 274 273
281 280 280 279 279 278 278 278 278 278 278 278 278 277 277 277 277 278 278 278 278 277 277 277 277 277 277 277 278 278 278 278 277 277 276 276 276 276 277 275 274 274
281 280 280 279 278 278 278 278 278 278 278 278 278 278 277 277 277 277 278 278 278 278 278 278 278 278 278 277 277 277 277 277 277 277 276 276 275 276 276 275 274 273
282 281 280 279 279 279 279 278 278 278 278 278 278 278 277 277 278 278 278 278 278 278 278 278 278 278 278 277 277 277 277 277 276 276 275 275 275 275 275 274 274 273
282 282 281 280 279 279 279 279 279 279 279 279 278 278 278 278 278 278 278 278 278 278 279 279 278 278 278 277 277 277 276 276 276 276 275 275 274 274 275 274 274 274
282 282 281 280 280 279 279 279 279 279 279 278 278 278 279 278 278 279 278 278 278 278 278 278 278 278 278 277 277 276 276 276 276 276 275 275 274 274 274 274 274 273
283 282 281 280 279 279 279 279 279 279 279 279 279 279 279 278 278 278 278 278 278 278 278 278 278 278 280 281 280 277 276 276 276 275 275 275 275 274 274 274 273 273
283 282 281 280 280 280 279 279 279 279 279 279 279 279 278 278 278 278 278 278 278 278 278 278 278 278 281 283 283 282 277 276 276 276 275 275 275 274 274 274 273 274
283 282 281 281 280 280 280 279 279 279 279 279 279 278 278 278 278 278 278 278 278 278 278 278 278 281 283 284 284 284 281 277 276 276 276 275 274 274 274 274 274 274
282 282 282 281 281 281 280 280 279 279 279 279 278 279 278 278 278 278 278 278 278 278 277 278 277 281 283 284 285 285 284 280 276 276 276 275 274 274 274 274 274 274
282 282 282 281 281 281 280 279 279 279 279 279 279 279 278 278 278 278 278 278 278 278 277 277 277 281 283 284 285 285 286 283 276 276 276 275 274 274 274 274 274 274
282 282 282 281 281 280 280 279 279 279 279 279 279 279 278 278 278 278 278 278 278 278 277 277 277 282 283 285 285 286 286 286 278 276 275 275 274 274 274 274 274 274
282 282 282 281 280 280 279 279 279 279 279 279 279 279 278 278 278 278 278 278 278 277 277 277 277 282 283 284 285 286 286 284 279 276 275 274 274 274 274 274 274 273
282 282 281 281 280 280 279 279 279 279 279 279 278 279 278 278 278 278 278 278 278 277 277 277 277 281 283 284 285 286 286 283 280 277 275 274 274 274 274 274 273 273
281 281 281 280 280 279 279 279 279 278 277 277 278 278 278 278 278 278 278 278 278 277 277 277 278 279 283 284 284 285 285 282 280 277 276 275 275 274 273 273 273 275
280 280 280 280 279 279 278 278 278 278 278 278 279 279 278 278 278 278 277 277 277 278 279 278 277 278 281 283 284 285 284 282 280 277 277 276 275 275 274 273 272 274
281 281 280 280 280 279 279 279 279 279 278 278 278 278 278 278 277 277 277 277 276 276 276 277 276 275 277 282 283 284 285 283 280 278 277 277 277 276 275 274 273 272

ECMWFNIL_sfc_thetae_057.txt.gz
Theta_e
296 293 294 293 292 292 290 291 291 291 291 290 290 289 288 287 285 285 285 285 285 285 284 285 285 285 285 285 286 285 285 285 284 284 285 284 284 284 283 283 284 284
294 293 293 292 292 291 291 291 290 290 290 289 290 290 288 286 284 285 284 284 284 284 284 284 284 284 284 284 284 284 283 283 283 283 284 284 283 284 283 283 283 283
294 292 292 291 291 290 290 290 289 290 289 289 289 288 286 286 284 284 284 284 283 283 283 284 284 284 284 284 284 284 283 283 282 282 283 283 282 283 282 282 282 282
293 292 292 291 291 290 289 288 287 287 287 286 286 286 286 285 284 283 283 283 283 283 283 283 283 283 283 283 283 283 283 282 282 282 282 282 282 281 281 281 281 281
291 291 291 291 290 290 288 287 286 285 285 286 285 284 284 284 283 282 282 282 282 282 282 282 282 282 282 282 282 281 281 281 281 282 282 281 281 281 281 281 281 280
290 290 290 290 289 288 286 285 285 284 284 284 284 283 284 283 283 282 282 281 281 281 281 281 281 281 281 281 281 281 281 281 281 281 281 280 280 281 280 281 281 280
289 289 288 289 288 287 286 285 284 284 284 284 283 283 283 282 282 282 281 281 281 281 281 280 280 280 280 280 280 280 280 280 280 280 280 280 280 279 280 280 280 279
288 288 288 288 287 286 285 284 283 283 283 282 282 282 282 282 282 281 281 281 281 280 280 280 280 280 280 280 280 280 279 279 279 280 279 279 279 279 279 279 279 279
287 286 286 285 285 284 284 283 283 282 282 282 282 281 282 282 281 281 280 280 280 280 280 280 280 279 279 280 280 280 279 279 279 279 279 279 279 278 278 278 278 278
286 285 284 284 284 283 283 283 282 281 281 281 281 281 281 281 281 280 280 280 280 279 279 279 279 279 279 280 279 280 279 279 279 279 280 280 279 279 278 278 278 277
285 284 284 283 283 283 282 282 281 280 281 281 280 280 280 280 280 280 279 279 279 279 279 279 279 279 279 279 279 280 280 279 279 279 279 279 279 279 279 278 278 278
285 284 284 283 283 283 282 281 281 280 280 280 281 280 280 280 280 279 280 279 279 279 279 279 279 279 279 279 279 279 279 279 279 279 279 279 279 279 279 278 278 278
285 284 284 283 283 283 282 281 280 280 280 280 280 280 280 280 280 279 280 279 279 279 279 279 279 279 279 279 279 279 279 279 279 278 278 278 278 278 279 278 278 278
285 284 284 283 283 282 281 280 280 280 280 280 280 280 280 280 279 279 279 279 279 279 279 279 279 279 279 279 279 279 279 279 279 278 277 277 277 277 278 277 277 277
285 284 284 283 282 282 281 280 280 280 280 280 280 280 280 280 280 279 279 279 279 279 279 279 279 279 279 279 278 278 279 279 278 278 278 277 277 276 277 277 277 277
285 284 283 283 282 281 281 280 280 280 280 280 280 280 280 280 279 279 279 279 279 279 279 279 279 279 280 282 281 279 279 278 278 278 278 277 276 276 275 276 276 277
284 284 283 282 282 282 281 280 280 280 280 280 280 280 279 279 279 279 279 279 279 279 279 279 279 279 282 284 284 283 279 278 278 278 278 277 277 276 276 275 276 276
284 283 283 282 282 281 281 281 281 280 280 280 280 279 279 279 279 279 279 279 279 279 279 279 279 282 285 285 285 284 282 279 279 278 278 277 277 277 277 276 276 276
283 283 282 282 282 281 281 281 280 280 280 279 279 279 279 279 279 279 279 279 279 279 279 279 279 284 285 286 285 285 284 280 278 278 278 278 277 277 276 276 276 276
282 282 282 282 282 282 281 280 280 280 281 281 280 279 279 279 279 279 279 278 279 278 278 278 278 284 286 286 286 286 285 282 278 278 279 278 277 277 276 276 276 276
282 282 281 282 282 282 281 280 280 281 281 280 280 279 279 279 279 278 278 279 279 279 278 278 278 284 286 286 286 287 287 285 280 279 279 278 278 277 276 277 277 276
281 281 281 281 281 281 281 281 280 281 280 280 280 279 279 279 279 279 279 279 279 279 278 278 278 284 286 286 287 287 287 285 282 280 279 278 277 277 277 277 277 276
282 281 281 281 281 281 281 280 280 280 280 280 279 279 279 279 279 279 279 279 279 278 278 278 278 283 285 286 286 287 287 284 284 282 280 278 278 278 277 277 276 276
282 281 280 280 280 280 280 281 280 280 279 280 279 279 279 279 279 278 278 279 278 278 278 278 278 281 285 286 286 286 286 284 283 282 281 280 279 279 278 277 277 278
281 281 281 280 280 280 280 280 280 280 279 279 280 280 279 279 278 278 278 278 278 278 280 279 279 280 284 285 285 286 286 284 283 282 281 280 279 279 279 277 276 277
281 281 280 280 280 281 281 281 280 279 278 279 279 279 279 278 278 278 278 278 278 278 278 279 278 278 280 284 284 285 286 284 283 282 280 280 280 280 279 279 277 275

ECMWFNIL_sfc_thetae_060.txt.gz
Theta_e
309 307 304 303 304 303 299 298 299 299 298 298 298 297 296 296 294 290 289 290 290 291 293 294 296 298 299 298 299 298 298 298 297 296 296 296 295 294 294 293 293 292
307 303 302 302 302 301 301 301 301 302 301 299 298 298 297 295 292 290 289 289 289 290 291 293 295 296 295 296 296 296 295 295 294 294 294 294 293 293 293 293 293 292
306 302 301 301 300 300 300 301 303 302 301 300 299 297 296 294 291 290 289 288 288 289 289 291 293 293 293 294 294 294 294 293 292 291 292 292 291 291 292 291 291 291
304 301 301 301 301 300 300 299 298 298 297 297 297 298 296 293 291 289 288 287 288 287 289 290 292 292 292 292 293 293 293 292 291 291 291 290 290 290 289 290 290 290
303 301 300 300 301 300 297 296 295 295 295 296 296 295 292 290 289 288 287 287 287 287 288 289 290 290 291 291 291 291 291 290 289 290 289 289 289 288 288 288 287 287
303 302 299 298 298 297 295 293 293 293 293 293 294 292 291 289 288 288 287 286 286 286 287 288 289 289 289 289 290 290 288 288 288 288 288 287 286 287 287 288 286 286
301 298 297 299 297 295 293 292 292 292 292 293 292 290 289 288 288 287 287 286 286 286 286 287 287 287 287 288 288 287 287 287 286 287 287 287 286 285 286 286 286 285
299 297 296 296 295 293 291 291 291 290 291 291 290 288 287 288 288 288 287 287 286 285 286 286 287 287 286 287 287 286 286 287 286 286 286 286 285 284 284 285 285 285
296 294 294 294 293 292 291 290 290 289 290 290 288 287 287 287 287 286 286 286 285 285 286 286 286 286 286 286 286 286 285 285 286 286 286 285 284 284 284 285 284 284
295 294 293 292 292 292 291 290 290 290 289 288 287 286 285 286 285 286 285 285 284 285 285 286 285 285 285 286 286 286 285 285 285 286 285 285 284 284 284 284 284 282
294 292 292 291 291 291 291 290 290 288 287 286 286 285 285 285 285 285 284 284 285 285 285 285 284 284 285 285 285 286 285 285 285 284 284 284 284 284 284 283 283 282
294 292 290 290 291 291 290 289 288 287 286 285 286 285 284 285 285 284 283 283 284 285 285 284 284 284 284 284 285 285 285 284 283 283 284 284 284 283 282 282 281 282
294 292 290 290 290 290 289 288 287 286 285 285 285 285 284 284 284 283 283 284 284 284 284 284 283 283 284 284 284 284 283 283 283 284 284 283 283 282 281 281 281 281
294 293 291 290 290 289 289 288 287 285 284 284 284 284 283 283 283 283 283 283 284 284 284 284 283 284 284 284 283 283 283 283 283 283 282 282 281 281 281 281 281 280
294 292 291 290 289 288 287 287 286 285 284 283 283 283 284 283 283 282 282 282 283 283 283 283 283 282 282 282 282 283 283 283 283 283 282 282 281 281 280 279 279 278
293 291 290 290 289 287 286 286 285 284 284 283 283 283 283 283 282 282 282 282 282 282 282 281 281 282 283 284 284 283 283 283 283 283 282 282 280 278 278 278 278 278
292 291 290 288 288 286 285 285 284 284 284 283 283 283 282 282 282 282 282 282 282 281 281 281 281 282 284 286 286 285 283 283 283 282 281 280 279 278 277 277 278 278
291 290 288 288 287 286 285 284 284 284 283 283 283 283 282 282 282 282 282 282 282 282 282 282 282 283 285 286 286 286 285 284 283 282 281 280 280 279 278 277 277 277
290 289 288 287 286 286 285 284 284 283 283 282 282 283 283 281 281 282 282 282 282 281 282 282 281 284 285 286 287 286 285 283 283 283 282 281 279 278 278 278 278 278
289 288 287 287 286 286 285 284 284 283 283 283 283 283 282 281 282 282 282 282 282 281 281 281 281 284 286 287 287 286 285 284 284 283 282 281 279 279 278 278 278 279
288 288 287 286 286 285 284 284 283 283 283 283 283 282 281 281 282 282 282 282 282 282 281 281 280 285 287 287 287 286 286 284 283 282 282 280 279 278 279 279 279 279
287 286 286 286 285 284 284 283 283 283 283 283 282 282 282 282 282 283 282 282 282 282 281 281 281 285 287 287 287 287 286 283 282 281 281 280 280 279 279 279 279 279
287 286 286 285 285 284 284 283 283 283 283 283 282 282 282 282 282 282 282 282 282 282 281 280 281 285 287 287 287 287 286 283 282 281 281 280 280 280 280 279 279 279
287 286 285 285 284 284 284 284 284 284 283 283 282 281 281 281 281 282 282 282 282 282 281 280 280 284 287 287 287 288 286 284 284 283 282 282 281 281 281 280 280 281
286 286 285 285 284 284 284 283 283 283 283 283 282 282 281 282 281 281 281 281 281 281 282 280 280 283 287 287 288 288 286 285 285 284 284 283 283 282 282 282 281 281
286 285 285 284 284 284 284 284 284 282 282 282 282 282 281 281 281 280 279 280 280 280 280 280 280 282 285 287 287 287 286 285 285 284 283 283 283 283 283 283 283 282

ECMWFNIL_sfc_thetae_063.txt.gz
Theta_e
311 311 311 310 309 308 307 306 306 305 305 305 303 304 303 302 300 298 298 297 299 299 299 301 300 302 302 302 302 302 301 300 301 301 301 301 300 299 299 297 296 295
309 310 310 309 308 308 307 306 306 306 306 305 304 304 303 302 302 300 297 296 296 297 298 299 298 299 300 301 300 299 297 297 298 298 298 299 298 298 297 296 295 294
308 309 309 307 307 308 307 305 306 306 306 306 306 305 303 301 300 297 297 296 296 295 295 296 296 297 297 297 297 297 298 297 298 295 297 297 296 296 295 294 293 293
308 308 309 307 308 308 307 305 305 305 305 305 304 303 301 300 299 295 295 294 295 293 293 293 294 294 294 294 294 295 296 296 296 295 296 295 294 294 293 292 292 291
307 307 308 307 307 307 306 304 304 304 304 304 303 302 299 295 293 293 293 291 292 292 291 291 292 292 294 294 294 294 294 294 293 294 294 293 293 292 292 291 290 289
307 307 307 306 306 305 303 303 304 303 302 301 301 300 297 295 293 292 291 290 290 290 290 291 291 291 292 293 293 294 294 294 293 293 292 291 290 290 290 290 289 287
306 306 304 304 303 303 302 302 302 300 300 299 297 296 296 294 292 291 290 290 289 289 289 290 290 290 291 291 292 292 293 292 291 292 291 289 288 288 289 288 287 286
305 305 304 302 302 301 301 300 300 299 298 296 295 295 294 292 291 291 290 289 289 289 289 289 289 289 290 290 291 291 291 291 290 290 289 287 287 286 286 287 286 285
304 303 301 301 301 300 300 299 298 296 295 295 294 293 292 292 292 290 289 289 288 288 288 288 288 288 289 289 290 289 289 289 290 289 288 286 286 285 286 286 285 284
303 303 300 300 300 301 301 299 297 294 293 293 293 291 290 291 291 290 289 288 287 287 287 287 287 287 288 288 289 289 289 288 288 288 288 287 286 285 284 284 284 283
302 301 299 298 298 298 299 298 297 294 292 292 292 290 290 290 289 289 288 287 286 286 286 286 287 287 287 287 288 288 288 288 288 287 287 286 285 284 285 284 284 283
301 300 298 297 296 295 295 295 295 294 292 291 291 290 290 290 288 288 288 286 286 286 286 286 286 286 286 287 287 287 287 287 287 287 286 285 284 284 284 284 283 283
300 299 297 297 296 295 295 294 294 293 291 290 290 289 289 288 287 287 287 287 286 286 286 285 285 285 286 286 286 286 286 286 286 285 285 284 284 284 283 283 284 283
299 299 297 297 296 295 294 294 293 290 289 289 289 289 288 287 287 286 287 286 286 286 286 285 285 285 285 285 285 286 285 285 285 284 283 283 283 283 283 283 283 283
299 298 297 296 295 294 294 294 292 289 288 288 288 288 288 287 287 286 286 285 285 285 285 285 285 285 285 284 284 284 285 284 284 284 283 282 282 281 282 282 281 281
299 297 296 294 294 293 293 294 292 289 288 287 286 287 286 286 285 285 285 285 285 284 284 285 284 285 285 286 287 284 284 285 284 283 282 282 281 280 280 280 280 280
298 296 294 293 293 293 293 293 290 287 287 286 286 286 285 285 284 284 283 283 283 283 283 284 284 284 286 288 288 288 285 284 283 283 283 282 281 281 279 279 279 279
296 294 293 292 292 292 292 290 288 287 286 285 285 285 285 285 284 283 283 283 284 283 283 283 283 285 288 288 289 289 287 284 284 283 283 282 281 281 280 279 279 278
295 293 292 291 291 289 289 288 287 286 286 285 284 285 284 284 283 283 283 283 283 283 282 282 282 285 288 289 289 289 288 286 284 284 283 282 281 281 280 279 279 278
294 290 290 290 289 288 288 287 286 285 285 285 285 284 284 283 284 283 283 282 282 282 282 282 282 285 287 288 289 289 289 287 284 283 283 282 281 281 280 279 279 279
291 290 289 289 288 287 286 286 285 285 285 285 284 284 283 283 283 283 283 283 283 283 283 282 281 286 287 288 289 288 288 286 284 284 283 282 281 280 280 279 279 279
290 289 288 288 287 286 286 285 285 285 285 284 284 284 284 284 284 283 283 283 283 283 282 282 283 286 287 287 288 288 287 284 283 283 282 281 280 279 279 279 279 280
290 289 288 287 286 285 285 285 284 284 284 285 283 283 283 283 283 283 283 283 283 283 282 282 283 286 287 287 287 287 285 283 283 282 282 280 279 279 279 279 279 280
289 288 287 286 286 285 285 285 285 285 284 284 284 283 282 282 283 283 283 283 283 283 283 282 282 285 287 288 287 286 285 283 282 282 281 281 280 279 279 279 280 281
288 288 287 286 285 285 285 284 284 284 284 284 284 284 283 283 283 283 283 283 283 283 283 282 283 285 287 288 287 287 284 283 283 282 280 280 280 280 280 280 280 281
287 286 286 285 285 285 285 285 285 284 284 284 283 283 283 282 282 282 281 282 282 282 282 282 282 284 286 287 287 286 285 284 284 282 281 281 281 282 281 281 281 281

ECMWFNIL_sfc_thetae_066.txt.gz
Theta_e
307 306 307 307 307 307 307 305 305 307 307 307 306 305 304 303 301 300 300 300 301 302 303 304 304 306 305 304 304 304 303 302 301 301 300 300 299 299 298 297 296 296
306 306 305 306 306 305 305 305 306 306 307 307 306 305 305 302 300 300 299 298 299 301 301 302 302 304 304 303 301 301 299 298 299 300 298 296 295 295 296 294 293 290
305 305 305 305 305 305 306 306 306 306 307 306 306 305 304 302 300 298 298 298 298 299 299 300 300 300 300 300 299 296 296 296 296 294 295 295 293 295 293 291 290 289
305 305 305 305 305 305 306 306 306 305 305 305 305 304 304 302 301 298 297 296 295 295 295 296 297 296 296 296 296 295 294 295 296 294 294 292 293 293 291 290 289 287
303 303 303 304 304 305 306 306 306 305 305 304 303 302 301 299 298 295 295 294 293 292 293 293 293 294 294 293 294 294 293 294 293 293 293 293 292 292 291 289 288 286
303 303 302 303 302 303 304 305 305 304 304 302 302 300 299 297 296 295 294 293 293 293 292 292 291 291 292 292 291 293 292 292 292 293 293 292 290 290 290 289 287 286
301 301 301 301 300 301 300 301 302 301 300 300 299 298 297 295 294 294 293 291 292 292 292 291 291 291 291 292 291 292 291 291 291 292 292 290 290 289 289 288 287 286
299 298 299 299 298 297 297 297 298 298 298 297 297 295 295 295 294 293 291 290 291 291 291 291 291 292 291 292 292 291 292 293 291 291 291 289 289 288 288 287 286 285
297 297 296 294 295 295 295 295 296 296 295 296 294 291 292 293 293 291 290 291 290 290 290 290 291 291 291 291 291 292 292 291 291 291 290 288 288 288 287 286 285 284
296 296 295 294 295 295 294 293 293 293 293 294 292 290 291 290 290 291 290 290 289 289 289 289 289 289 289 290 291 291 291 290 290 290 289 289 289 287 286 285 284 283
295 294 295 294 294 294 293 292 291 291 291 292 290 289 290 290 290 290 289 288 289 288 288 288 289 289 289 289 290 291 290 290 289 289 288 288 288 287 286 285 284 283
295 295 294 294 294 293 292 292 292 291 289 290 290 290 289 290 290 289 288 288 288 288 287 287 287 287 287 288 289 289 289 289 289 288 288 287 286 285 284 283 282 282
295 295 294 293 292 293 293 292 291 290 289 289 288 289 289 289 289 289 288 288 287 287 286 286 286 286 287 287 288 288 288 288 288 287 287 286 284 284 283 282 281 281
295 293 293 293 292 291 291 291 291 290 289 288 288 288 289 289 288 288 288 288 287 286 286 285 285 285 286 286 286 286 286 287 287 286 285 284 283 282 282 282 281 281
293 293 293 292 291 291 290 290 290 290 288 288 288 288 289 288 288 288 287 287 286 286 285 285 284 285 285 285 285 285 285 286 286 285 284 283 282 281 281 281 280 280
292 292 292 291 291 291 290 290 289 288 287 287 287 288 287 287 287 286 287 286 285 285 285 285 285 285 285 287 287 286 286 286 285 284 283 282 281 280 280 280 280 280
292 292 291 291 290 290 289 289 289 287 286 286 286 287 286 286 286 285 285 285 285 284 283 284 284 285 286 288 289 289 285 284 284 283 283 282 281 281 280 279 279 280
292 291 290 290 289 289 288 288 288 286 285 285 285 285 285 285 285 285 285 284 284 284 284 284 284 286 288 289 289 290 287 284 284 283 282 281 281 281 280 279 279 279
291 291 289 288 288 288 288 288 287 285 285 284 285 285 285 285 284 284 284 284 284 284 283 283 283 286 288 289 289 290 289 285 284 284 283 282 281 280 279 279 279 279
290 289 288 288 287 287 287 287 286 285 284 284 284 284 285 285 284 284 283 283 283 283 283 283 282 286 288 289 289 289 289 287 284 283 283 282 281 279 279 279 278 278
290 289 288 287 286 286 286 286 285 284 283 283 283 283 284 284 284 284 283 283 283 283 283 283 282 286 288 288 288 289 289 287 283 283 282 281 280 279 279 279 278 278
289 287 287 285 285 285 285 285 284 283 283 282 282 282 284 284 284 284 283 283 283 283 283 282 282 286 288 287 289 289 289 284 283 282 281 280 279 279 279 279 279 279
287 286 285 285 284 284 284 283 282 282 281 282 281 282 283 283 283 283 283 283 283 282 282 282 283 287 288 288 288 289 288 283 283 282 281 279 279 279 279 279 279 279
286 285 284 284 284 283 283 282 282 281 281 282 281 281 282 283 283 283 283 283 282 282 282 282 283 285 287 288 288 288 285 283 282 281 280 279 278 278 278 279 280 282
285 285 284 284 283 283 283 281 281 281 281 281 282 283 283 283 283 282 282 283 282 282 283 282 282 284 287 288 288 288 284 283 282 280 279 278 278 278 278 279 280 282
284 284 283 283 282 281 281 281 281 280 280 281 282 283 282 282 282 282 281 282 282 282 282 282 282 284 286 287 288 287 285 283 282 280 278 278 278 278 278 279 279 280

ECMWFNIL_sfc_thetae_069.txt.gz
Theta_e
306 305 306 306 306 306 306 305 305 306 306 306 307 307 307 307 307 307 305 305 305 306 307 309 309 310 309 308 307 306 304 303 303 302 301 300 300 299 299 299 298 298
305 304 304 304 304 304 305 306 306 306 306 306 306 305 304 304 305 305 305 304 303 304 304 305 307 309 308 307 306 305 303 302 301 302 301 299 300 299 299 299 298 298
305 304 303 304 305 304 304 303 304 304 305 305 305 304 303 303 303 304 304 304 303 303 303 303 304 306 306 306 305 303 302 301 301 298 299 299 299 298 298 298 297 296
304 304 304 304 304 304 303 303 302 302 302 303 303 303 303 302 303 301 301 300 301 299 299 299 301 301 303 303 302 301 301 301 301 299 298 296 295 296 296 294 294 293
303 303 304 304 303 302 302 303 303 302 301 302 301 301 301 300 299 296 296 296 296 296 295 296 296 296 297 298 299 299 296 296 295 295 295 294 293 294 294 293 292 291
301 303 302 302 302 301 301 301 302 302 301 298 301 299 299 298 297 297 296 295 294 294 294 294 294 294 294 295 294 296 295 295 294 294 294 294 293 291 292 291 291 290
300 299 299 300 298 299 300 300 300 299 299 299 294 295 295 297 298 298 297 296 295 294 294 293 293 293 293 293 293 294 293 294 293 293 294 293 292 290 290 290 289 289
298 296 298 297 297 296 296 296 296 296 295 292 294 294 295 297 297 297 296 296 295 295 294 293 293 293 292 292 293 293 293 294 293 293 293 292 291 291 289 289 289 288
296 295 296 294 294 294 294 293 293 292 291 294 294 293 293 296 296 296 295 295 295 294 294 293 293 292 291 292 292 293 293 292 293 293 293 292 291 291 289 288 288 287
294 294 293 294 294 294 293 292 291 291 290 292 293 293 293 293 295 295 294 294 294 293 292 292 292 292 291 291 292 292 293 292 292 292 293 292 292 291 289 288 288 287
293 292 293 293 293 292 292 291 290 290 290 291 291 291 291 292 293 293 293 292 292 292 291 291 291 291 291 291 291 292 292 292 291 291 291 291 292 291 289 288 288 287
293 292 293 293 293 291 291 290 290 290 291 290 290 291 290 291 292 292 292 292 292 291 291 291 291 291 291 291 291 291 291 291 290 290 290 290 290 289 289 288 287 286
293 293 293 292 292 291 290 290 290 290 290 290 289 290 290 289 289 291 290 291 291 290 290 290 290 290 290 290 290 290 291 290 290 290 289 289 289 288 288 287 287 286
294 292 291 291 291 290 290 290 290 290 290 289 288 289 289 289 289 289 289 289 289 289 289 289 288 288 289 289 289 290 290 289 289 288 288 288 288 287 287 287 287 286
293 291 291 290 290 290 290 290 290 290 289 289 288 288 288 288 288 289 288 288 288 288 287 287 287 287 288 288 288 288 289 289 288 288 288 287 286 286 285 285 285 284
292 291 291 290 290 291 290 290 290 289 289 288 288 288 287 287 286 287 287 287 287 286 286 286 286 287 287 288 289 288 288 288 288 287 287 286 285 284 283 283 283 283
291 291 291 290 291 290 289 289 289 289 288 287 287 286 287 286 286 286 286 287 287 286 286 286 286 286 287 290 290 290 288 287 287 287 286 285 284 283 282 281 281 281
292 291 290 291 290 290 289 288 288 288 287 287 286 285 285 285 285 286 287 287 287 286 286 286 286 287 289 290 290 290 288 286 286 286 285 284 284 283 282 281 280 280
290 290 290 290 290 289 288 287 287 287 287 286 285 285 284 284 285 285 286 286 286 286 285 285 285 287 289 289 290 290 289 287 285 285 285 284 283 282 281 281 280 280
289 289 289 289 288 287 287 287 287 287 286 286 285 284 284 284 285 285 286 285 285 285 285 285 285 286 289 289 289 290 290 288 285 285 284 284 282 282 281 281 281 280
289 289 289 288 287 287 287 287 287 286 285 284 284 284 284 284 285 285 285 285 285 285 285 284 284 287 289 289 290 290 290 289 285 284 284 283 282 281 281 281 281 281
288 288 288 287 286 286 286 286 285 285 284 283 282 282 282 283 285 285 285 284 284 284 284 284 283 287 289 289 289 289 290 285 284 284 283 282 281 280 281 281 281 281
288 288 287 286 285 285 285 285 284 283 282 282 282 281 282 283 284 284 284 284 284 284 284 284 283 286 288 288 289 290 288 283 283 283 282 281 280 280 280 280 281 282
286 287 287 285 284 285 285 284 283 283 282 282 282 281 281 282 283 284 284 284 284 283 284 283 283 285 288 288 288 289 287 284 283 282 281 280 280 279 279 279 280 282
285 286 286 285 284 284 284 283 282 282 280 280 281 281 281 281 283 283 283 283 283 283 284 283 283 284 287 288 288 289 287 284 283 281 280 279 279 278 279 279 279 281
284 285 284 284 284 283 282 282 280 279 279 280 279 280 280 281 283 283 282 282 282 282 283 283 283 284 286 288 288 289 287 283 282 280 279 279 278 278 278 279 279 280

ECMWFNIL_sfc_thetae_072.txt.gz
Theta_e
307 306 307 306 306 306 306 304 304 304 305 305 305 306 306 306 305 306 308 309 309 311 312 312 312 312 312 313 313 312 309 308 306 305 304 303 303 302 301 300 299 299
306 305 304 304 304 303 304 304 304 304 305 305 305 305 304 303 303 305 306 306 306 307 309 310 310 310 311 310 310 309 307 307 307 306 305 302 302 302 301 300 300 299
304 304 304 304 305 304 303 303 303 304 304 304 303 303 303 302 302 303 304 305 305 305 306 306 307 308 309 309 309 308 307 305 304 303 302 302 302 301 301 301 300 298
304 304 305 304 304 304 302 302 302 302 301 301 302 302 302 301 301 301 301 301 304 304 303 303 304 305 306 307 306 305 306 306 306 304 302 301 301 301 300 299 298 297
302 303 303 303 303 301 300 301 302 302 301 302 300 299 300 299 299 297 297 297 299 300 299 300 300 301 302 304 305 305 303 302 302 301 301 300 299 298 299 297 296 296
300 302 302 302 301 300 300 301 302 301 301 298 300 298 299 298 298 296 295 296 296 297 298 297 296 297 297 299 299 301 300 299 299 299 298 298 297 295 297 295 295 295
300 299 299 299 298 299 299 300 300 299 300 299 294 297 296 295 295 295 295 295 296 296 297 296 296 296 295 295 295 296 296 297 297 296 297 297 296 294 293 293 294 294
298 296 297 296 297 297 297 298 297 297 296 292 295 295 293 295 295 294 293 294 294 295 295 295 296 297 295 295 295 295 295 296 296 295 295 295 293 294 292 293 293 293
296 296 295 294 295 296 295 295 294 292 291 294 294 292 291 293 294 293 293 293 294 294 295 295 295 295 294 294 295 296 296 295 295 294 295 295 293 294 293 292 292 291
295 294 292 293 294 295 295 294 292 292 291 292 293 291 292 291 291 293 293 293 293 293 295 295 294 293 293 293 295 295 296 295 294 293 294 294 294 294 293 291 291 291
293 292 292 293 294 294 293 293 291 291 290 292 292 292 292 291 290 290 292 292 294 294 294 294 294 294 293 293 293 293 294 295 294 294 294 294 294 294 292 291 291 291
293 292 293 293 293 293 293 292 291 290 291 290 291 293 292 291 292 290 291 292 292 293 294 294 294 293 293 293 293 293 292 293 293 293 293 293 293 293 292 291 291 291
294 294 294 294 293 293 292 291 291 290 290 291 290 291 292 291 290 291 290 291 292 292 292 293 293 293 293 293 292 292 292 292 292 291 292 292 292 292 291 291 290 290
295 295 294 294 293 292 292 291 291 290 290 290 289 290 291 291 291 291 290 290 291 291 291 292 293 293 292 292 292 292 291 291 291 291 291 291 290 290 290 290 290 289
296 295 293 292 292 291 291 291 291 290 289 289 289 290 290 290 290 290 290 289 289 289 289 290 292 292 292 291 291 291 291 291 291 291 290 290 289 289 289 289 288 288
294 293 293 292 290 291 292 291 290 289 289 289 289 289 289 289 288 288 289 289 288 288 288 289 290 291 289 291 291 291 290 291 290 290 290 290 289 288 287 287 287 287
292 293 292 291 291 291 290 290 289 288 288 288 288 288 288 287 287 288 288 288 288 288 288 288 289 289 289 291 292 292 290 289 289 289 289 289 289 288 287 286 286 286
291 291 290 291 290 290 290 288 287 287 288 288 288 287 287 286 286 287 287 287 287 287 287 288 288 288 290 291 292 292 291 289 289 288 288 288 288 287 287 286 285 284
290 290 290 290 290 289 289 288 287 288 288 288 288 288 285 286 287 286 286 286 286 286 287 287 287 289 291 291 291 292 292 289 288 287 287 287 287 286 286 285 283 282
289 289 289 289 289 288 287 288 287 288 288 288 287 286 286 286 286 286 286 285 286 286 287 287 287 288 290 291 290 291 292 290 287 287 287 287 286 285 284 283 283 282
288 288 288 289 288 287 287 287 288 288 287 287 287 286 286 286 285 285 285 285 285 286 286 287 287 289 290 290 290 291 291 291 286 286 286 286 285 284 284 283 282 282
287 288 288 287 287 286 287 287 287 287 287 285 285 284 285 284 284 284 284 284 284 285 286 286 286 288 289 290 290 290 291 288 286 285 285 285 284 283 283 282 282 282
286 287 287 287 286 286 287 287 287 286 285 284 284 283 283 283 284 284 284 284 284 285 285 286 286 287 288 289 290 290 290 287 285 285 284 284 283 282 282 282 282 282
285 286 287 287 286 286 287 286 285 282 284 283 284 283 282 282 282 282 282 283 284 285 285 285 285 285 287 289 289 290 289 286 285 284 284 283 282 281 281 281 282 283
285 285 286 286 286 286 285 285 284 284 281 280 281 280 281 279 280 281 279 280 282 285 285 285 284 284 287 288 289 290 288 285 285 284 283 281 280 280 281 281 281 283
283 284 284 285 285 284 283 283 280 278 278 279 277 279 279 279 279 281 281 281 282 284 284 284 284 284 285 288 289 289 289 285 284 283 282 280 280 279 279 280 281 282

ECMWFNIL_sfc_thetae_075.txt.gz
Theta_e
305 304 306 306 307 306 306 304 303 304 305 304 305 305 305 305 303 306 309 311 312 313 314 314 314 314 314 314 314 314 313 312 310 309 307 305 304 303 302 301 301 301
304 303 303 303 304 302 303 303 303 303 304 304 304 304 303 301 301 303 305 306 307 309 310 310 310 310 310 311 311 311 311 311 310 309 307 305 304 303 303 302 301 302
302 302 302 303 304 303 302 301 302 303 303 303 302 301 301 299 300 300 302 303 304 305 306 307 308 308 308 308 309 309 309 309 308 308 305 305 304 304 304 303 302 301
301 302 303 303 303 302 301 301 301 301 300 300 301 300 300 299 299 299 300 300 302 302 302 302 304 305 305 306 307 308 308 308 308 307 305 305 304 303 303 302 302 302
300 301 301 301 301 300 298 300 301 300 300 301 298 297 297 298 297 297 297 297 298 299 298 299 300 302 303 305 305 306 306 306 306 305 304 304 304 303 303 301 300 299
299 300 300 300 300 299 299 300 301 300 300 298 299 296 298 296 297 296 295 295 294 296 297 297 298 299 300 302 303 304 304 303 302 303 303 302 301 299 301 300 299 299
298 296 297 298 297 297 299 300 300 299 299 298 292 297 294 295 295 296 296 295 296 296 298 299 299 299 298 300 300 301 300 300 299 298 299 299 298 297 297 298 297 297
296 293 296 295 296 296 297 298 298 297 296 292 294 296 292 295 295 295 293 294 295 296 296 297 298 300 298 298 298 298 297 298 298 296 296 297 296 296 295 295 295 296
293 294 294 292 293 295 294 296 295 293 291 294 294 294 291 293 294 293 293 293 294 295 296 296 296 296 296 296 296 297 297 296 297 295 295 296 296 296 296 294 294 294
292 293 291 291 292 294 294 294 293 293 291 293 294 293 293 292 292 293 293 293 293 294 294 294 294 294 294 294 296 296 296 296 295 295 295 295 296 296 295 294 294 293
291 290 291 291 292 293 293 293 292 291 290 292 292 292 293 292 291 291 292 292 293 294 294 293 293 293 293 293 293 293 294 295 295 295 295 295 295 296 294 295 294 294
291 290 291 292 292 292 292 292 291 291 291 291 291 293 292 291 292 291 291 292 293 293 293 293 292 292 292 293 292 292 292 293 294 294 294 294 294 294 294 294 294 293
292 292 292 292 292 292 291 291 291 291 290 292 290 291 292 292 291 292 291 291 292 292 292 293 292 292 292 292 292 292 292 293 293 293 293 293 294 294 294 293 293 293
293 292 292 292 291 291 291 291 291 290 290 290 288 290 291 292 292 292 291 290 292 292 292 291 291 291 291 291 291 291 291 291 292 291 292 292 292 292 292 292 292 292
292 292 292 291 290 290 291 291 290 290 289 289 288 289 290 290 291 291 291 290 290 290 291 290 291 292 292 291 291 290 290 290 291 291 291 291 291 291 291 291 291 291
291 290 291 290 290 291 291 290 290 289 288 288 289 289 289 289 289 289 290 291 291 290 290 290 291 292 291 292 292 291 290 291 291 291 291 291 290 290 290 290 290 290
289 289 289 289 290 290 290 290 290 289 288 288 288 288 288 288 288 288 289 289 290 290 290 290 291 291 291 293 294 294 291 289 290 290 290 290 290 290 290 289 289 289
288 289 288 289 288 289 289 289 288 288 288 288 288 288 288 287 287 288 289 289 289 289 289 290 290 290 292 293 294 294 293 290 290 290 290 290 289 289 289 289 288 288
289 289 289 288 289 288 288 288 287 287 288 288 288 288 287 287 288 287 288 288 288 288 288 288 288 290 292 293 293 293 294 292 290 289 289 289 289 289 289 288 287 286
288 288 288 288 288 288 287 287 287 288 288 288 288 287 287 287 287 287 287 287 287 287 288 288 287 289 291 292 292 292 293 293 289 288 288 288 289 289 288 288 287 286
288 288 288 288 288 287 287 287 287 287 287 287 287 288 287 287 288 287 287 287 286 286 287 287 287 290 291 291 292 292 292 292 288 287 287 287 288 287 287 287 286 285
287 287 287 287 287 287 286 287 287 287 287 287 286 286 286 285 286 286 286 286 286 286 286 286 286 289 290 291 291 292 292 289 288 287 286 286 286 286 286 285 285 284
286 286 286 287 287 286 286 287 287 287 287 285 285 286 286 285 286 286 286 286 285 285 285 285 285 287 290 290 291 291 291 287 287 286 286 285 285 285 284 284 284 284
286 285 285 286 286 286 286 287 286 286 286 285 285 286 285 285 285 285 284 284 284 284 284 284 285 286 289 290 290 291 289 287 286 286 285 285 284 283 283 283 283 284
285 284 284 284 285 285 286 286 286 286 285 282 283 284 285 283 282 282 282 281 282 283 283 284 284 284 288 289 290 290 289 286 286 285 284 283 283 282 282 282 282 283
284 283 283 283 284 284 284 285 284 283 283 282 282 281 282 280 279 281 281 281 280 280 281 282 282 282 285 288 289 289 290 287 286 285 284 283 282 282 281 282 282 282

ECMWFNIL_sfc_thetae_078.txt.gz
Theta_e
303 303 305 305 306 306 305 305 304 304 305 304 304 304 304 304 301 303 306 309 312 313 315 315 316 316 316 316 316 314 313 314 313 312 311 309 308 306 305 305 304 303
301 301 301 302 303 302 303 303 304 304 304 303 303 303 300 299 301 302 303 304 306 308 311 312 313 313 314 314 314 313 314 313 312 311 309 308 308 307 306 306 305 304
299 299 300 301 303 302 302 301 301 302 302 302 300 299 301 299 300 299 301 302 303 304 306 308 310 311 311 311 312 311 311 311 311 311 310 310 309 308 308 307 306 305
297 299 300 300 300 301 300 300 300 300 298 299 300 300 299 299 299 299 299 298 300 301 301 304 306 307 308 308 308 308 308 308 309 307 307 306 306 306 306 306 305 305
296 298 298 299 299 298 297 299 300 299 299 300 297 296 297 297 296 296 296 296 297 298 298 299 300 302 303 305 306 306 306 306 307 306 306 306 306 305 305 305 304 304
294 295 296 297 297 297 298 298 299 299 299 297 298 296 297 295 296 296 295 295 295 296 297 297 297 297 298 301 302 304 304 304 304 304 304 304 305 304 305 304 303 302
293 292 293 294 294 294 296 297 298 296 297 297 292 295 293 294 295 296 296 295 295 295 296 297 298 298 299 300 300 301 302 302 303 302 302 303 302 300 299 301 300 300
291 289 291 290 291 292 293 295 295 295 294 290 293 296 292 295 295 295 294 294 295 296 296 297 298 299 299 299 300 300 300 301 301 300 299 299 298 299 298 298 297 297
288 289 289 288 289 291 290 292 292 290 289 292 293 293 290 292 294 293 293 293 293 294 296 296 296 297 298 299 299 300 300 300 300 299 298 297 297 297 297 296 295 295
288 288 287 287 288 290 290 290 291 290 288 289 291 291 291 290 290 292 292 292 292 293 294 295 295 295 295 296 298 298 299 299 298 297 298 297 297 297 297 295 295 294
289 288 287 288 288 288 289 289 289 289 288 289 289 290 290 290 290 289 290 291 293 293 294 294 295 295 295 295 296 297 297 297 297 297 296 296 296 296 295 296 295 295
290 290 290 289 289 289 289 289 289 288 289 288 288 290 290 290 291 290 290 291 291 292 293 294 294 294 294 295 295 295 295 295 296 296 296 296 296 295 295 295 295 295
290 290 291 290 290 289 289 289 289 288 288 289 288 289 289 290 289 290 290 290 291 291 292 292 293 293 293 294 294 295 294 294 294 294 294 294 295 295 294 294 294 294
290 289 290 290 290 289 289 289 289 289 288 288 287 288 289 289 289 290 290 289 290 291 291 291 291 292 293 293 293 293 293 293 293 293 293 293 293 293 293 293 294 294
289 289 289 288 289 289 289 289 289 289 289 288 287 288 288 288 289 289 289 289 290 289 290 290 291 292 293 292 292 293 292 292 292 292 292 292 292 292 292 292 292 292
287 287 287 287 288 288 288 288 288 288 288 288 288 288 288 288 287 287 288 289 289 290 290 290 291 293 291 292 293 292 292 292 292 292 292 292 291 291 291 291 291 291
285 286 286 286 287 286 287 287 288 287 287 287 287 287 288 288 287 287 287 287 288 289 289 290 291 292 292 294 295 295 293 291 291 291 291 291 291 291 291 290 290 290
286 286 285 285 285 286 286 286 286 286 286 287 287 287 287 286 286 287 287 287 288 288 288 289 290 291 293 294 294 295 294 292 291 291 291 291 290 290 290 290 290 289
287 287 286 286 286 286 286 285 285 285 285 286 287 286 285 286 287 287 287 287 287 288 288 289 290 291 293 293 294 294 295 293 292 291 291 290 290 290 290 289 289 288
286 286 286 286 286 286 286 286 286 286 286 286 286 286 285 286 286 286 286 286 286 287 288 288 289 290 292 293 293 293 294 294 292 291 291 290 290 290 290 289 288 288
285 285 285 285 285 285 286 286 286 286 287 287 287 287 286 287 287 287 287 287 286 286 287 287 288 290 291 292 292 293 294 293 292 290 290 289 289 289 289 289 288 288
284 284 284 284 284 285 285 285 285 286 286 287 287 287 286 286 286 285 286 286 287 286 286 287 288 290 291 291 292 293 293 290 290 289 289 288 288 288 288 288 288 288
284 283 283 283 283 283 284 284 284 285 286 285 285 286 286 286 286 286 286 286 286 286 286 286 287 288 290 290 291 292 292 289 288 288 288 287 287 287 287 287 287 286
283 283 282 282 283 282 283 283 284 284 285 284 284 284 285 286 286 286 285 284 284 285 285 286 286 287 288 290 290 291 290 288 288 287 287 287 286 286 286 286 285 285
282 282 282 282 282 282 282 282 283 283 283 283 283 283 283 284 283 283 284 284 282 283 283 284 284 285 287 289 290 290 290 287 287 287 286 286 286 285 285 284 284 284
282 281 281 281 281 281 281 281 281 281 281 282 282 282 282 282 281 281 281 282 282 281 281 281 282 283 284 288 289 290 290 288 286 286 286 286 285 285 284 283 283 283

ECMWFNIL_sfc_thetae_081.txt.gz
Theta_e
305 306 308 309 310 310 311 310 310 310 310 310 310 311 310 310 309 309 311 313 315 316 317 317 318 318 318 319 319 317 315 316 316 316 313 311 311 310 309 308 307 307
302 303 304 304 305 306 307 307 308 308 309 309 309 309 309 307 307 307 308 309 310 312 314 315 316 316 317 317 317 317 317 316 315 313 312 311 311 310 309 309 308 308
299 300 301 302 304 304 305 305 305 306 306 307 306 306 307 305 306 305 306 307 308 308 309 311 313 314 314 314 315 315 314 314 314 315 312 312 311 309 310 309 308 308
298 299 300 301 302 302 303 302 303 303 303 303 304 305 304 304 304 304 304 302 305 306 306 307 309 311 311 311 312 312 312 312 313 313 312 312 312 312 312 311 310 309
297 298 298 299 300 300 300 300 301 302 302 303 302 302 302 302 301 301 301 301 302 303 304 304 305 306 307 308 309 309 309 309 310 310 310 309 310 310 310 310 309 308
295 295 296 297 298 298 299 299 300 300 301 300 302 301 301 300 300 300 300 300 300 301 301 302 302 303 303 305 306 306 307 307 307 307 307 307 307 307 307 307 307 306
294 293 294 295 294 295 296 297 298 298 298 299 296 298 299 298 298 299 299 299 299 299 299 300 301 301 301 302 302 303 304 305 305 305 305 305 305 305 305 306 305 305
292 291 292 292 292 293 293 294 294 295 295 294 295 297 296 297 297 298 298 298 298 299 299 299 299 300 301 301 300 300 301 303 303 303 303 303 303 302 303 303 303 302
290 291 290 290 290 292 291 292 293 292 292 293 294 295 294 295 296 296 296 296 296 297 298 298 299 299 300 300 300 300 300 301 302 301 301 301 300 301 300 299 299 298
290 290 290 290 291 291 291 291 291 291 291 291 292 292 292 293 292 293 293 294 294 295 295 296 296 296 297 298 299 300 300 300 300 300 300 300 300 300 299 298 298 298
291 291 291 291 291 291 291 291 290 290 290 291 291 291 292 292 292 292 292 292 293 294 295 295 295 295 296 297 297 298 298 299 299 299 299 299 299 299 296 298 297 297
291 291 291 291 290 291 290 290 290 290 290 290 290 291 291 291 291 291 292 292 292 293 293 294 294 295 295 295 296 296 296 297 297 297 297 298 298 298 298 297 297 297
290 290 290 290 290 290 290 290 290 290 290 290 290 290 290 290 291 291 291 291 292 292 292 293 293 293 295 295 296 296 296 295 295 295 295 296 296 297 297 297 297 297
289 289 289 289 289 289 290 290 290 290 290 290 289 290 290 290 290 290 291 290 291 291 292 292 292 292 293 294 294 295 295 294 294 294 294 295 295 295 295 296 296 296
289 289 289 289 289 289 289 289 289 289 289 289 290 290 290 290 290 289 289 290 290 290 290 291 291 292 293 293 293 294 294 293 293 293 293 293 294 294 294 294 295 295
288 288 288 288 288 288 288 288 288 288 288 288 289 289 289 289 289 289 289 289 289 290 290 290 291 292 290 291 292 293 293 294 293 293 293 293 293 293 293 294 294 294
287 287 287 287 287 287 287 287 287 287 287 287 288 288 288 288 289 289 289 290 289 290 290 290 291 291 290 292 293 294 293 293 292 292 292 292 292 292 292 293 293 293
286 286 286 286 286 286 286 286 286 286 286 286 287 287 287 287 287 288 288 289 289 289 289 289 290 290 291 292 293 293 293 292 292 292 292 292 292 292 292 292 292 292
286 286 286 286 286 285 285 285 285 285 285 286 286 287 286 286 287 287 287 288 288 288 288 289 289 290 291 292 292 293 293 293 293 292 292 291 292 292 292 292 292 291
285 285 285 285 285 285 285 285 285 285 286 286 286 286 286 286 286 286 287 287 287 288 288 288 288 289 291 291 292 292 293 293 292 292 292 292 292 292 292 291 291 291
285 285 284 285 285 285 284 285 285 285 285 285 286 286 285 286 286 286 286 286 287 287 287 287 288 289 291 291 292 292 293 293 292 292 292 291 292 291 291 291 291 291
284 283 284 284 284 284 284 284 284 284 284 285 285 285 285 285 286 285 285 285 286 286 286 286 287 289 290 290 291 291 292 291 290 290 290 290 290 291 291 291 291 290
284 283 283 283 283 282 282 283 283 283 283 284 283 284 284 284 284 285 285 285 285 285 285 285 286 287 288 289 290 291 290 289 288 289 289 289 290 290 290 290 290 289
283 282 281 281 281 281 281 282 282 282 282 282 282 282 282 283 283 284 284 284 283 283 284 284 284 285 287 288 289 289 289 288 288 288 287 288 288 289 289 289 289 287
282 281 281 280 280 280 281 280 280 281 281 281 281 281 281 282 282 282 282 283 283 283 283 283 283 284 285 286 287 288 288 287 287 287 287 287 288 288 289 288 287 286
281 280 280 279 279 280 280 280 280 280 280 280 280 281 281 281 281 281 280 281 282 281 281 282 281 282 283 285 286 287 288 287 287 287 286 286 287 287 287 287 286 286

ECMWFNIL_sfc_thetae_084.txt.gz
Theta_e
312 313 313 313 313 314 314 314 314 314 315 315 315 316 317 318 318 318 318 319 319 319 319 320 320 320 320 320 321 321 321 321 321 322 322 320 317 316 315 316 315 313
309 310 310 311 312 312 312 313 313 312 313 313 314 314 315 315 316 316 316 316 316 317 317 318 318 318 318 318 319 318 318 319 318 320 319 319 319 319 317 317 317 316
307 308 309 309 309 310 310 311 311 311 311 312 312 312 313 313 312 313 313 313 314 314 315 315 316 316 316 316 317 316 316 316 316 317 318 317 317 316 316 317 316 316
306 306 306 307 308 308 309 308 309 310 310 310 310 311 311 311 310 310 311 309 311 311 312 313 313 314 314 314 314 314 314 314 315 315 315 315 315 315 314 315 314 314
304 304 305 305 306 306 307 307 307 307 307 308 308 309 308 309 308 308 308 309 309 309 310 310 311 312 312 312 312 311 311 311 312 313 312 311 312 312 313 313 312 312
303 303 303 303 303 304 304 304 305 305 305 305 306 305 306 306 306 306 306 306 307 307 308 308 309 309 309 310 309 309 309 309 310 310 309 309 309 311 310 311 310 310
301 301 301 301 302 302 302 302 302 302 302 302 302 303 304 304 304 304 305 305 305 305 306 306 306 307 308 307 307 306 307 307 307 307 307 307 308 308 309 309 308 308
299 300 300 300 300 300 300 300 300 300 300 300 300 302 302 301 302 303 303 303 304 304 304 304 305 305 305 305 304 304 304 304 304 304 304 304 305 305 306 306 307 306
299 298 298 298 299 299 298 298 298 299 299 298 299 300 300 300 300 300 301 301 301 302 302 303 303 303 303 303 302 302 301 302 303 303 302 302 302 303 303 304 303 304
298 298 298 298 298 298 297 297 297 297 297 297 298 298 298 299 299 299 299 299 299 300 301 300 300 300 300 301 301 301 300 300 301 301 302 301 301 301 302 302 301 300
297 297 297 297 297 297 297 297 297 297 297 297 297 297 297 297 298 298 298 298 298 299 299 299 300 300 300 300 300 300 300 300 300 300 300 300 301 301 298 300 300 299
296 296 296 296 296 296 296 296 296 296 296 297 296 296 296 297 297 297 297 297 297 297 298 298 298 299 299 299 299 299 299 299 299 299 299 299 299 299 299 299 299 299
295 295 295 295 295 295 295 295 295 295 295 295 296 296 296 296 296 296 296 296 296 297 297 297 297 297 298 298 299 299 299 298 298 298 297 297 297 297 298 298 298 298
295 294 294 294 294 295 295 294 294 295 295 295 295 295 295 295 295 295 296 296 296 296 297 297 296 296 297 297 297 297 297 296 296 295 295 295 295 296 296 296 296 296
294 294 294 294 294 294 294 294 294 294 294 294 294 294 295 294 294 295 294 295 296 296 296 297 297 297 298 297 296 296 296 296 296 296 295 295 295 295 295 296 296 296
293 293 293 293 293 293 292 292 293 293 292 293 293 293 293 293 293 293 294 294 294 294 295 296 296 297 293 291 292 293 294 295 295 295 295 294 294 294 294 295 295 295
292 292 292 292 292 292 291 291 291 291 291 291 292 291 292 292 292 292 293 293 293 293 293 294 295 295 291 292 292 293 293 294 294 294 294 294 293 293 293 293 294 295
291 291 291 291 291 290 290 290 290 289 290 290 290 289 290 291 291 291 292 292 292 292 292 293 293 291 292 292 292 292 292 293 294 293 293 293 293 293 293 293 294 294
290 290 290 290 289 289 289 288 288 289 288 288 288 289 290 290 290 290 290 291 291 291 291 292 292 291 291 291 291 291 292 292 293 293 293 292 293 293 293 293 293 293
289 288 288 289 288 288 288 287 288 287 288 288 288 288 288 288 288 289 289 290 290 290 290 290 291 290 290 291 291 291 291 291 292 292 292 292 292 292 292 292 293 293
288 287 287 287 287 287 286 286 287 287 287 287 287 287 287 287 287 287 288 288 288 288 288 288 290 289 290 290 290 290 290 291 291 291 291 291 291 292 292 292 292 292
287 286 286 286 286 286 286 286 286 286 286 286 286 287 287 287 287 287 287 287 287 287 287 287 289 289 289 289 289 289 290 289 290 290 290 290 290 291 291 292 292 292
286 285 284 284 285 284 284 284 284 285 285 286 285 285 285 286 286 286 286 286 286 286 286 286 287 288 288 288 288 288 288 288 288 288 288 289 289 290 291 291 292 292
285 284 283 283 283 283 283 284 284 284 285 285 284 284 284 285 285 286 286 286 286 285 286 285 286 286 286 287 287 288 288 287 287 287 287 288 288 289 290 290 291 288
284 283 282 282 282 282 282 282 283 283 284 284 284 284 284 285 285 285 285 285 286 285 285 285 285 285 286 286 287 287 287 287 287 287 286 287 288 288 289 290 290 289
283 282 281 281 280 281 281 282 282 283 283 283 283 283 284 284 284 284 283 284 285 285 285 285 285 285 285 286 286 287 287 286 286 286 285 286 286 287 287 287 289 289

ECMWFNIL_sfc_thetae_087.txt.gz
Theta_e
315 316 316 316 316 316 315 315 315 315 315 316 315 316 316 317 317 317 317 317 317 317 318 318 318 318 319 319 319 319 318 318 318 319 320 322 320 318 317 316 316 315
312 311 311 312 313 314 314 314 314 313 313 314 314 314 314 314 314 314 314 314 314 315 316 316 316 316 316 316 316 316 316 316 316 318 318 318 318 319 318 317 316 316
310 310 311 310 310 310 311 312 312 312 312 312 312 313 313 313 312 312 312 312 312 312 313 313 314 315 315 315 315 314 314 314 314 315 315 315 316 316 317 317 316 316
308 308 308 309 309 309 309 309 310 310 310 310 310 310 310 311 311 310 311 309 310 310 311 311 311 312 312 312 313 312 313 312 313 313 313 313 313 313 314 315 314 314
306 306 306 306 306 307 308 307 306 306 306 307 308 307 306 307 307 307 307 308 308 308 309 309 309 309 310 310 310 310 310 310 311 311 310 310 311 311 311 311 311 310
304 304 304 304 304 304 304 304 304 304 304 304 303 305 305 305 305 305 305 305 306 306 307 307 307 307 308 308 308 308 308 307 308 308 307 307 308 309 309 309 309 308
302 302 302 303 303 303 303 302 302 302 302 302 303 303 303 303 303 303 303 304 304 304 305 305 305 305 306 306 306 306 306 306 306 305 305 304 305 305 306 306 306 306
301 301 302 302 302 301 301 300 300 300 300 301 301 301 301 302 301 301 302 302 302 302 303 303 303 304 304 304 303 303 303 304 303 303 302 302 303 302 303 304 304 304
301 301 301 301 301 300 300 299 300 300 300 299 300 300 301 301 300 300 300 300 300 301 301 302 302 302 302 302 301 301 301 301 302 301 301 300 300 301 302 302 302 302
300 300 300 299 299 299 299 299 299 299 299 299 299 300 299 300 300 300 300 300 300 300 300 300 300 301 301 301 301 301 300 300 300 300 300 300 300 300 300 301 301 300
299 299 298 298 298 298 298 298 298 298 298 298 298 298 298 299 299 299 299 299 299 298 299 299 299 299 299 299 300 300 300 300 300 300 299 299 299 299 296 299 299 299
298 298 297 297 297 297 297 297 297 297 297 297 297 296 297 298 297 298 297 297 297 298 298 298 298 298 298 298 299 299 299 299 299 299 299 298 298 298 298 298 298 298
296 296 296 296 296 296 296 296 296 296 295 295 295 295 295 295 296 296 296 296 297 297 297 297 298 298 298 298 298 298 298 298 297 297 297 297 297 297 297 297 297 297
296 296 296 295 296 296 296 295 295 295 295 295 294 294 294 294 294 294 295 295 296 296 296 297 296 296 297 298 297 296 295 295 295 295 295 296 296 296 296 296 296 296
295 295 295 295 295 294 294 294 294 293 293 293 293 294 294 294 294 294 294 294 294 295 295 295 296 296 297 296 294 293 293 293 294 294 294 294 294 295 295 295 295 295
294 294 294 294 293 293 292 292 292 292 292 292 292 293 293 293 293 293 293 293 293 293 294 295 295 296 294 292 292 292 292 292 292 292 293 293 293 293 293 294 294 294
293 292 292 292 292 292 291 291 291 291 291 291 291 291 291 292 292 292 292 292 292 292 292 294 295 295 292 293 293 293 292 291 291 291 291 292 292 292 292 292 293 294
291 291 291 291 291 290 290 290 290 289 290 290 290 290 290 290 290 291 291 291 292 292 292 292 292 291 293 293 292 292 291 290 290 290 291 291 292 292 292 292 292 292
290 290 290 290 290 289 289 289 287 288 288 287 287 289 289 289 290 289 290 290 291 290 290 290 291 291 292 292 292 291 291 290 290 290 290 290 291 291 291 291 291 291
289 289 288 288 288 288 288 288 287 287 287 288 287 288 288 288 288 288 288 289 289 288 289 289 289 290 291 291 291 291 291 291 290 289 289 290 290 291 291 291 291 291
288 287 287 287 287 287 286 286 286 286 286 286 287 287 286 286 287 286 287 287 287 287 288 287 289 290 290 290 290 291 291 290 289 289 289 289 290 290 291 291 291 291
287 286 286 286 286 285 285 285 285 285 285 286 286 286 286 286 286 286 286 286 286 286 287 287 287 289 289 290 290 290 290 288 288 288 288 288 289 289 290 290 290 290
286 285 285 284 284 284 284 284 284 284 285 286 285 285 285 285 285 285 286 286 286 286 286 286 286 287 289 289 289 289 289 287 286 286 286 287 287 288 289 290 290 290
285 284 283 283 283 282 282 282 283 283 284 285 284 284 284 284 285 285 286 286 285 285 285 285 285 286 287 288 289 289 288 286 286 286 286 286 287 288 289 289 289 287
284 283 282 281 280 281 281 280 281 282 283 284 284 283 283 284 285 285 284 285 285 285 285 285 285 285 287 288 289 289 288 286 286 285 285 285 286 286 287 288 288 288
281 281 280 279 279 279 280 280 281 282 282 282 282 282 283 284 284 284 283 283 284 284 285 285 285 285 286 288 288 289 289 287 286 285 284 284 285 285 285 286 287 287

ECMWFNIL_sfc_thetae_090.txt.gz
Theta_e
312 311 310 310 307 307 306 306 305 305 305 306 305 307 306 307 308 307 306 307 307 308 308 309 309 310 311 311 312 313 314 313 313 313 312 311 311 311 313 313 312 313
305 305 304 305 306 306 306 305 305 304 304 304 305 304 306 306 305 304 304 304 304 305 306 306 307 307 307 308 307 308 310 311 311 312 311 310 309 310 311 311 311 311
303 304 304 303 304 303 303 303 303 304 303 303 304 304 304 303 302 302 303 302 302 303 303 304 304 304 305 305 305 305 305 305 306 308 308 308 309 309 310 310 310 309
301 302 302 302 302 302 302 302 301 301 301 301 300 301 301 302 300 300 300 299 300 300 300 301 300 301 300 301 302 301 302 301 301 302 302 304 306 306 306 306 306 307
299 299 299 299 299 300 299 299 298 298 298 298 298 298 299 298 298 297 297 297 297 296 297 297 297 297 298 298 297 300 298 297 298 298 297 298 300 302 303 304 304 303
298 298 298 298 297 297 297 297 297 296 295 295 297 297 296 296 294 294 294 294 294 295 295 295 296 296 296 296 297 297 297 298 297 295 295 297 298 299 301 301 301 300
296 297 297 297 296 296 296 295 295 295 295 294 293 294 292 292 292 292 292 292 293 294 293 294 294 295 294 293 293 293 294 293 293 293 293 295 295 296 295 296 297 297
296 295 296 295 295 294 294 293 292 292 291 290 291 291 291 291 291 291 291 292 292 292 292 292 291 294 292 292 293 292 292 295 295 292 292 293 291 293 294 295 295 295
294 293 293 292 292 292 291 291 290 290 290 290 291 291 292 292 291 292 291 291 290 291 291 290 292 291 292 291 292 291 291 292 293 291 291 292 292 292 293 293 293 293
293 292 291 291 290 289 289 289 289 290 290 291 291 290 292 291 290 290 289 290 289 290 289 289 290 290 290 289 291 290 291 292 292 291 291 291 291 292 292 292 291 291
291 290 290 290 290 290 290 290 290 290 290 289 289 289 289 288 289 287 288 288 291 289 290 289 289 289 290 290 291 289 289 290 290 290 291 291 291 291 291 291 291 291
290 290 290 290 289 289 289 288 289 287 286 287 287 287 286 286 286 287 287 287 286 288 287 289 289 288 288 289 290 290 289 289 289 290 290 290 291 291 291 291 291 291
289 289 289 288 288 288 288 287 287 286 286 287 286 286 286 285 285 285 285 286 287 286 288 289 289 289 289 290 290 288 287 287 288 288 288 289 289 290 290 290 290 290
288 288 287 288 287 287 287 286 286 285 285 284 285 284 285 285 285 286 286 285 287 287 289 289 288 288 288 288 288 288 287 286 286 287 287 287 288 288 289 289 290 290
287 288 288 287 287 286 286 285 285 284 284 284 284 284 287 285 285 286 286 286 286 286 286 287 288 289 290 290 289 288 287 287 286 286 286 286 287 287 287 288 288 289
287 287 287 287 286 285 285 284 284 284 284 284 285 284 284 284 284 284 284 284 285 285 285 287 288 289 289 291 292 290 288 287 286 286 285 285 285 286 286 287 287 288
285 286 285 285 285 284 283 283 284 284 283 283 283 283 283 283 283 283 283 283 284 284 284 286 287 288 290 292 293 293 290 287 286 285 285 285 285 285 285 286 287 287
285 284 284 284 283 283 282 282 282 281 281 281 282 281 282 281 282 281 282 282 283 282 282 284 284 287 290 291 292 292 291 288 286 286 285 285 285 285 285 286 286 287
284 283 283 283 282 282 282 281 280 280 279 280 281 281 281 281 281 281 281 282 282 282 282 283 283 287 289 290 291 291 291 290 286 285 285 285 285 285 285 285 286 286
283 283 282 282 282 281 281 280 279 280 279 279 280 279 280 280 279 280 281 281 282 282 282 282 282 286 289 290 290 290 291 290 286 285 285 284 284 284 285 285 285 285
282 282 281 281 280 279 279 279 279 279 279 280 279 279 280 281 281 281 281 281 281 281 281 282 283 287 289 289 289 290 290 290 285 285 284 284 284 284 284 284 285 285
281 281 280 280 279 278 278 278 278 278 279 279 279 279 278 278 279 277 280 280 281 281 281 281 282 287 288 288 289 289 290 286 284 283 283 283 284 284 284 284 285 285
280 279 279 278 277 277 276 277 277 277 278 278 278 278 279 279 279 279 280 280 281 281 280 281 281 284 287 288 288 289 289 284 283 283 283 283 283 284 284 284 284 285
279 278 276 276 275 275 275 275 276 276 276 278 277 278 277 278 279 280 280 279 280 280 280 280 281 283 286 287 288 288 288 284 283 283 283 283 283 284 284 284 284 285
278 277 275 274 274 274 274 274 274 276 276 276 276 275 277 277 279 279 279 279 277 279 281 281 281 282 285 287 287 288 287 284 283 283 282 283 283 283 284 284 284 284
275 275 274 273 272 272 273 274 274 275 275 275 276 276 277 277 277 278 277 278 279 278 279 280 280 281 283 286 287 288 288 286 284 283 282 282 283 283 283 283 284 284

ECMWFNIL_sfc_thetae_093.txt.gz
Theta_e
313 312 310 306 302 304 303 303 301 302 302 302 301 300 301 299 301 301 300 301 301 301 302 302 302 302 303 303 303 305 305 306 307 307 307 306 304 305 307 307 307 308
303 302 302 302 302 302 301 301 301 301 300 299 300 299 299 299 298 298 298 299 299 299 299 300 300 300 300 300 299 300 299 300 300 303 302 300 300 302 302 303 303 304
301 301 301 300 300 299 299 299 298 298 298 297 297 297 296 296 296 295 296 296 297 297 297 297 298 298 298 297 297 297 297 296 298 297 296 295 296 298 297 298 299 300
298 299 299 298 298 297 297 296 296 296 295 296 295 295 295 295 294 294 294 293 294 294 294 295 295 295 295 295 295 294 294 293 293 293 294 293 293 293 296 296 296 297
296 296 296 296 296 295 295 295 294 294 294 293 294 293 294 293 292 291 290 290 290 290 291 291 291 292 291 292 290 291 290 289 290 291 290 290 291 291 294 294 293 293
295 295 295 295 294 294 294 293 292 293 292 293 292 291 291 289 288 288 288 289 289 290 289 289 289 289 288 288 288 288 288 289 289 289 290 289 290 290 291 291 290 291
294 294 293 293 293 293 293 292 292 291 291 289 288 289 286 288 287 287 286 286 286 287 286 287 287 289 289 289 288 288 288 287 289 288 288 288 286 289 288 287 287 289
292 292 292 292 292 291 290 290 289 289 286 287 288 285 285 286 286 286 286 285 285 286 286 286 287 289 287 288 288 288 288 290 286 287 287 287 286 288 288 289 287 288
290 290 289 289 289 289 288 288 287 286 285 287 286 285 285 286 286 286 285 285 286 286 287 287 287 286 286 286 287 285 286 287 285 285 286 286 287 288 288 287 287 287
289 288 288 288 288 287 287 285 285 285 285 285 284 285 287 286 285 286 286 286 286 286 286 286 286 286 286 285 285 285 286 287 286 284 285 285 286 287 287 286 287 287
287 287 288 287 287 286 286 285 285 285 285 286 286 286 285 286 287 285 286 286 286 285 285 284 285 284 285 285 285 284 284 284 284 285 284 285 285 286 287 286 286 286
287 287 287 286 286 285 285 285 285 285 285 285 284 286 285 284 284 284 283 283 283 283 283 284 284 284 284 284 285 285 284 283 283 283 283 284 284 285 285 285 286 286
286 286 286 285 285 285 285 285 285 284 285 285 283 283 282 283 282 282 283 283 284 283 284 284 284 284 284 283 284 284 284 283 285 284 285 284 284 285 285 285 285 286
285 285 285 285 284 284 284 284 284 284 283 282 281 283 282 283 283 283 283 282 282 282 283 282 282 283 283 283 283 284 284 284 284 285 285 284 284 285 284 285 285 285
285 284 284 284 284 284 284 284 283 281 281 281 281 281 283 282 282 282 282 282 282 282 283 283 284 285 285 284 285 285 284 285 285 284 284 284 284 283 283 284 284 284
285 284 284 284 284 283 282 281 281 281 281 280 281 280 280 281 281 281 281 281 282 282 282 283 284 284 285 288 290 287 285 285 284 284 283 283 283 283 283 283 283 283
284 284 283 283 281 281 280 280 281 280 280 280 280 280 280 280 280 280 280 280 281 281 282 283 284 284 287 290 290 291 288 284 283 283 283 282 282 282 282 283 283 283
283 283 282 281 281 280 280 280 279 278 279 279 279 279 279 279 279 280 280 279 280 280 280 282 282 285 288 289 290 290 290 286 284 283 283 283 282 282 282 282 282 283
282 282 281 281 280 279 279 279 277 277 276 277 277 279 279 279 279 279 279 279 279 279 280 281 280 285 287 289 290 290 290 288 284 283 283 282 282 282 282 282 282 282
282 281 281 280 279 279 278 278 276 278 277 277 277 278 278 278 277 278 279 279 279 279 279 280 280 283 287 288 288 289 289 289 284 283 282 282 282 282 282 281 282 282
281 280 280 279 278 277 276 276 277 276 276 276 276 277 277 278 278 277 279 277 278 276 278 279 280 285 286 287 288 288 289 288 283 282 282 281 282 281 281 281 282 282
280 279 279 278 278 276 275 275 275 275 275 276 276 276 276 276 276 276 277 277 277 276 277 278 279 284 285 286 287 287 288 284 282 281 281 281 281 281 281 282 282 282
279 278 277 276 276 275 273 274 274 274 275 275 275 275 275 275 275 275 276 276 275 275 276 277 277 281 284 285 286 287 286 282 282 281 281 281 281 281 282 282 282 282
278 277 275 274 273 273 274 274 274 273 273 274 274 275 274 275 275 275 274 274 274 274 275 276 277 280 283 284 285 286 286 282 281 280 280 280 280 281 281 281 282 283
276 276 275 273 272 272 273 272 272 273 274 273 273 272 274 274 275 274 274 273 273 274 278 277 276 278 282 284 284 285 284 281 281 280 279 279 280 280 281 281 282 282
275 274 273 272 271 271 271 272 273 274 273 272 272 272 272 272 272 272 273 274 274 275 275 275 276 276 278 283 283 284 284 282 280 279 278 278 279 280 280 280 281 282

ECMWFNIL_sfc_thetae_096.txt.gz
Theta_e
310 309 308 307 305 306 305 303 301 300 298 298 299 297 298 295 295 296 295 297 296 297 297 297 298 298 298 297 297 298 298 297 298 298 296 297 296 296 298 296 295 297
305 304 303 304 303 302 300 299 300 299 297 296 296 295 295 295 294 294 294 294 295 295 294 295 295 296 296 295 294 295 295 295 295 295 295 294 293 294 294 294 293 294
305 306 305 303 300 298 297 296 297 296 296 294 294 294 294 291 293 292 292 292 292 292 293 293 293 293 293 293 293 292 292 291 292 291 291 290 291 292 291 290 291 292
302 302 301 298 297 296 295 295 294 294 294 294 293 292 292 292 291 290 290 289 290 290 289 291 290 291 291 291 290 289 288 288 287 287 287 286 287 286 289 289 288 288
298 296 296 295 294 294 294 294 293 293 292 291 291 290 290 290 289 287 286 286 287 286 287 287 288 288 287 287 286 287 285 285 286 285 284 285 285 286 287 286 285 286
294 294 294 294 293 293 293 292 291 291 291 290 290 288 287 286 286 286 286 286 285 285 285 284 285 284 284 284 284 284 284 284 284 284 285 284 285 284 286 285 285 286
292 292 292 292 292 292 291 290 289 289 289 288 285 286 285 286 286 285 285 285 284 284 284 284 285 284 283 283 283 284 283 284 284 284 285 284 283 285 284 283 284 285
291 291 291 291 290 289 288 287 286 286 285 285 286 283 285 285 286 284 283 283 284 284 284 284 284 284 283 283 284 284 284 284 283 284 284 284 283 284 284 283 283 284
289 288 288 287 287 287 286 286 285 284 284 286 285 284 283 284 283 283 282 282 284 283 284 284 284 284 282 283 283 284 284 284 283 284 284 284 284 284 284 283 284 283
287 287 287 286 286 286 285 284 285 284 283 285 284 283 284 282 282 282 282 283 284 284 284 284 284 283 283 282 283 283 284 284 284 283 283 283 283 284 284 283 283 283
286 286 286 286 285 285 285 284 284 284 283 283 283 284 282 283 283 283 284 284 284 283 283 283 283 283 283 283 283 282 282 283 284 284 283 284 283 283 284 283 283 283
286 286 286 286 285 285 284 284 284 284 283 282 282 284 283 283 283 283 282 282 282 282 282 281 281 281 282 283 283 283 282 281 282 282 283 283 283 284 283 283 283 283
286 286 286 285 285 284 284 284 283 283 283 283 282 283 283 283 282 282 281 282 282 282 282 282 282 282 281 281 282 282 282 283 282 282 283 282 283 283 283 283 283 283
285 285 285 284 284 283 283 283 283 282 282 282 282 283 283 281 281 282 281 280 280 280 281 280 280 280 280 280 280 281 281 281 281 282 282 282 282 282 282 282 283 283
285 284 284 283 283 283 283 283 282 281 281 281 281 281 282 280 281 281 281 281 281 281 281 280 281 282 281 281 282 283 281 282 282 282 282 282 282 282 282 282 282 282
284 284 283 283 283 283 282 282 281 281 281 281 280 280 280 279 279 279 280 280 280 280 279 281 281 281 283 288 289 285 283 283 283 282 282 281 281 281 281 281 281 281
284 283 283 283 282 282 281 281 281 281 280 280 279 279 279 278 279 280 280 279 279 279 280 281 281 282 286 288 289 289 286 282 282 282 281 281 280 280 280 280 281 281
283 283 282 282 282 281 280 280 279 279 279 278 278 278 278 278 279 279 279 279 279 279 279 280 280 284 287 287 288 288 288 285 282 282 281 280 280 280 280 280 280 280
283 282 282 281 281 280 280 279 278 277 276 276 276 277 278 279 278 278 278 278 279 279 279 279 279 283 285 287 287 287 288 287 282 281 280 279 279 279 279 279 279 280
282 282 281 280 280 279 279 278 277 276 275 275 276 277 277 277 277 277 277 278 278 278 278 278 278 282 285 286 286 287 287 286 280 280 279 279 279 279 279 279 279 279
282 281 280 279 279 278 277 277 276 275 275 275 276 276 277 276 276 275 276 275 276 276 277 277 278 283 284 285 286 286 287 285 280 280 279 278 279 278 278 278 279 279
281 280 279 278 278 277 276 276 275 274 274 275 275 275 274 274 274 274 274 274 275 274 276 276 277 282 283 284 285 285 285 281 279 279 278 278 278 278 278 278 278 279
280 279 278 277 277 276 275 274 274 274 274 274 273 274 273 273 273 274 274 274 274 274 274 275 275 279 282 283 284 285 283 278 278 277 277 277 277 278 278 278 278 279
279 278 277 276 275 274 274 274 272 272 272 273 273 272 272 272 273 273 273 273 273 274 274 274 274 277 281 282 283 283 283 278 277 277 276 276 277 278 278 278 279 280
277 276 275 274 274 273 273 272 271 271 271 270 271 270 271 272 272 272 272 272 272 273 276 275 272 275 280 281 282 282 281 277 276 275 275 276 276 277 278 278 278 279
275 274 274 273 273 272 271 271 271 270 270 271 269 270 270 271 270 271 272 274 274 273 272 271 271 272 275 281 281 282 282 279 275 274 275 275 277 277 277 277 278 278

ECMWFNIL_sfc_thetae_099.txt.gz
Theta_e
315 315 314 312 310 310 308 306 305 304 302 301 301 297 296 293 292 295 294 295 294 295 294 295 295 295 295 295 295 295 294 293 293 292 293 294 293 292 293 292 292 292
312 311 309 308 305 305 305 305 304 303 300 298 296 294 292 293 291 293 293 293 293 293 293 293 293 293 293 293 292 292 291 291 291 291 291 290 290 289 289 290 290 289
307 307 307 307 305 302 301 301 301 299 297 294 293 293 292 290 291 289 291 291 291 290 291 291 291 290 290 290 290 289 289 289 290 288 288 287 289 288 287 288 289 288
306 306 305 303 302 299 298 297 295 294 293 293 292 291 292 290 290 289 289 289 289 288 288 288 288 288 288 288 288 287 286 286 285 284 285 283 284 283 285 286 285 285
303 301 301 299 298 297 296 295 293 292 292 291 290 289 289 289 288 286 286 285 286 285 285 285 285 285 285 285 285 286 284 284 283 282 284 283 283 283 284 283 283 284
300 299 298 297 296 295 294 292 292 291 290 289 289 288 287 286 285 285 285 285 284 284 284 284 285 284 283 283 283 283 283 284 283 283 284 283 283 282 283 283 283 284
297 296 295 295 293 292 292 291 290 290 289 287 285 285 285 285 285 285 285 284 285 284 285 284 284 283 282 282 283 283 283 283 284 284 285 283 283 283 282 282 282 283
295 294 293 292 291 290 289 288 287 287 285 285 286 283 284 285 285 283 283 284 285 284 284 283 283 283 282 283 284 284 284 284 284 284 284 284 282 283 283 282 281 282
291 289 288 288 288 287 287 286 286 285 285 286 285 284 282 284 284 284 284 284 284 283 283 283 283 283 282 283 283 284 284 283 283 283 283 283 283 283 283 282 282 282
288 287 287 287 287 287 286 285 285 285 284 285 284 284 284 282 283 283 283 283 283 283 283 283 283 283 283 282 283 283 283 283 283 282 282 282 282 283 282 282 282 282
286 287 287 287 286 286 285 285 284 284 284 284 284 284 283 283 282 281 283 283 284 283 283 283 283 283 283 283 282 280 282 282 282 282 282 282 282 282 283 282 282 281
286 286 287 286 286 285 285 284 284 284 283 282 283 283 282 282 282 282 283 283 282 282 282 282 281 282 282 282 282 282 281 281 281 281 281 282 282 282 282 281 281 282
286 286 286 286 285 285 284 284 283 283 283 283 282 283 283 282 282 282 281 282 282 282 282 282 282 282 281 280 281 281 281 281 280 280 281 280 281 282 281 281 281 281
286 285 285 285 284 284 283 283 283 282 282 281 282 282 282 282 282 282 281 281 281 281 281 280 281 281 280 280 280 280 280 280 280 279 280 280 280 280 280 280 281 281
285 285 284 284 283 283 283 283 282 282 281 282 281 281 281 281 281 281 281 281 280 281 280 280 281 281 281 281 281 281 280 280 280 280 280 280 280 280 280 280 279 279
285 284 283 283 283 283 283 282 282 281 282 281 281 280 280 280 280 280 280 280 280 279 279 280 280 280 284 288 288 283 282 280 280 280 279 279 280 279 279 279 279 279
284 283 283 283 282 282 282 281 281 281 281 281 280 280 280 279 280 279 279 279 279 279 279 279 280 281 287 287 288 288 283 281 280 280 279 279 279 278 278 278 278 279
283 283 282 282 282 282 281 280 280 280 280 280 280 279 279 279 279 278 278 278 278 278 278 278 278 284 286 287 287 287 288 283 280 279 279 279 278 278 278 278 278 278
283 283 282 282 281 281 280 280 280 280 279 279 279 278 278 278 277 278 277 277 277 277 277 277 277 284 285 286 286 287 287 284 279 278 278 278 278 277 277 277 277 277
283 282 282 281 280 280 280 280 280 279 278 277 277 276 277 276 275 277 277 277 277 277 277 277 276 283 285 285 285 286 286 283 278 277 277 277 277 277 277 277 277 277
282 282 281 281 280 280 280 279 279 277 277 276 276 276 276 276 276 275 276 275 276 275 276 276 278 283 284 284 285 285 285 282 277 278 277 276 277 276 276 276 276 277
282 281 281 280 280 279 279 278 278 277 277 275 274 275 274 274 274 275 275 274 274 274 275 275 276 282 283 284 284 284 284 279 276 276 276 276 276 276 276 276 276 276
282 281 280 280 279 278 278 277 276 275 275 274 275 275 275 274 274 273 273 273 273 274 275 276 275 279 281 283 283 284 282 274 274 273 273 275 275 276 276 276 276 276
281 281 280 278 278 278 277 276 275 274 274 274 275 275 274 273 272 273 273 273 273 274 276 276 276 278 280 282 282 283 282 275 273 272 272 273 273 276 277 276 276 278
280 280 279 278 277 277 276 275 275 274 273 272 273 273 272 273 273 274 274 274 274 275 278 276 275 276 279 281 282 282 280 274 274 271 272 275 276 276 276 276 276 277
279 278 277 277 276 275 275 275 274 273 272 272 272 272 272 273 274 275 275 275 275 275 275 275 275 274 276 280 281 281 281 278 274 273 274 275 276 276 275 275 276 275

ECMWFNIL_sfc_thetae_102.txt.gz
Theta_e
319 318 318 318 318 317 315 313 311 311 309 306 305 302 302 298 297 296 294 293 293 293 293 293 293 294 294 294 293 293 292 291 292 292 292 291 290 290 290 290 290 290
318 316 316 316 313 311 312 313 310 309 305 304 302 299 297 296 294 293 292 292 291 291 291 291 291 292 291 291 290 290 289 289 289 290 289 288 288 287 287 287 287 287
315 314 314 313 312 310 308 306 306 305 303 300 298 298 295 293 291 290 291 291 290 289 290 289 290 289 289 289 288 288 287 287 286 286 286 286 286 286 286 286 286 285
312 313 313 312 310 307 304 303 301 299 298 297 296 294 293 291 290 289 289 288 288 287 287 287 287 287 287 287 287 286 285 284 283 283 284 283 283 283 283 283 283 283
310 310 309 307 305 304 303 301 299 298 298 295 293 292 290 289 288 287 286 285 285 285 285 285 285 285 285 285 285 285 284 283 282 283 284 283 282 283 282 282 282 282
306 307 305 303 302 302 301 300 297 296 294 293 291 289 289 288 287 286 285 285 284 285 284 284 284 283 283 284 284 283 283 284 283 284 284 283 282 281 282 282 282 282
302 301 300 300 300 300 298 296 294 293 293 290 287 287 286 286 286 286 285 285 284 284 284 284 284 283 282 283 283 283 283 283 283 283 283 282 282 282 282 281 281 281
299 299 298 298 297 296 294 293 291 290 287 287 287 285 286 286 286 284 284 284 284 284 283 283 283 283 282 283 283 283 283 282 282 283 283 282 282 282 281 281 281 281
297 296 295 295 294 292 291 290 288 287 287 287 286 285 284 285 285 284 284 284 283 283 283 283 283 282 282 283 283 283 283 282 282 282 283 282 281 281 281 281 281 280
294 293 293 292 292 290 289 287 286 286 286 286 285 285 284 283 283 284 283 283 283 283 283 283 282 282 282 282 282 282 282 282 282 282 282 281 281 281 281 281 281 280
291 291 292 291 290 289 287 286 286 285 285 285 285 284 283 283 282 283 283 283 283 283 282 282 282 282 282 282 282 281 282 282 281 281 281 281 281 281 282 281 280 280
290 291 291 290 288 287 286 286 285 285 285 284 285 284 283 283 282 282 283 282 282 282 282 282 281 282 282 282 281 281 281 281 281 281 281 281 281 281 281 280 280 280
290 290 290 289 287 286 285 285 285 284 284 284 283 283 283 282 282 282 281 282 282 282 282 282 282 281 281 281 281 282 281 281 281 281 281 280 281 280 280 280 280 280
289 289 288 286 286 286 285 285 284 284 283 282 282 282 282 282 282 281 281 281 281 281 281 281 281 281 281 281 281 281 281 281 281 280 280 280 280 280 279 278 279 279
288 286 286 285 285 285 284 284 283 283 282 282 282 282 282 281 281 281 281 280 280 281 280 281 281 282 282 281 282 281 281 281 281 280 280 280 279 279 278 278 278 278
286 285 285 285 285 284 284 283 283 282 282 281 281 281 281 281 280 280 280 280 280 279 279 280 281 282 285 288 286 282 281 281 281 280 280 279 279 278 278 278 278 277
285 285 284 284 284 284 283 283 282 282 281 281 281 280 280 280 280 279 279 279 279 279 279 280 282 283 288 288 288 287 282 280 280 279 279 279 278 277 277 277 277 277
285 284 284 284 283 283 283 282 282 281 281 280 280 279 279 279 279 279 279 278 278 278 278 279 281 287 288 288 288 287 283 280 279 279 278 278 277 277 277 276 276 276
284 284 284 283 283 282 282 281 281 281 280 280 280 279 278 278 278 278 278 278 278 277 277 278 280 286 287 287 287 286 284 281 278 278 278 278 277 277 276 276 276 276
284 284 283 283 282 281 281 281 281 280 280 279 278 278 278 277 277 277 277 277 277 277 277 278 279 285 286 287 286 285 283 281 277 278 278 278 278 277 277 276 275 276
283 283 282 282 281 281 280 280 280 279 278 278 278 278 277 277 277 276 276 276 276 276 277 278 281 285 286 286 286 284 283 281 277 278 278 278 278 277 276 276 275 276
283 282 282 281 281 280 280 280 279 278 278 276 276 276 276 276 275 276 275 275 275 275 275 276 279 284 285 285 285 283 282 278 277 278 277 277 277 277 277 276 276 275
283 282 281 281 280 280 279 279 278 277 276 276 276 276 276 275 275 274 274 274 273 274 274 275 276 282 284 284 284 283 280 277 277 276 276 276 276 277 276 275 275 275
283 282 281 280 280 280 279 279 277 276 276 276 277 276 275 275 274 274 273 273 274 274 275 275 277 281 283 284 283 282 279 277 276 275 275 276 276 277 277 276 276 277
282 281 281 280 280 280 279 278 277 277 275 275 275 275 274 273 273 274 273 273 274 276 277 276 276 278 282 283 283 282 279 277 276 274 275 276 276 275 276 276 276 276
281 281 280 280 280 279 278 277 275 274 274 274 273 274 273 273 274 274 274 274 275 275 275 275 275 276 279 282 282 281 281 277 276 275 275 275 276 275 274 274 274 273

ECMWFNIL_sfc_thetae_105.txt.gz
Theta_e
323 321 321 320 322 322 320 319 317 315 314 313 312 310 308 304 302 301 300 300 300 300 300 300 300 300 299 299 297 295 294 294 294 293 292 292 291 291 290 291 291 291
322 320 319 320 320 319 320 319 317 316 314 313 311 307 303 300 300 300 298 298 298 298 298 299 298 298 297 297 296 295 293 293 291 291 291 290 289 289 289 289 289 290
321 320 319 319 319 318 318 317 316 315 312 309 305 302 300 299 298 298 297 297 296 296 296 296 295 296 295 294 294 293 292 291 289 289 289 288 289 289 289 289 289 289
319 320 320 319 319 317 315 313 310 309 307 303 302 300 299 297 297 295 295 294 295 294 293 294 294 293 293 291 291 291 289 289 288 289 288 288 288 288 288 288 287 287
318 318 318 318 316 314 312 310 307 305 304 303 299 297 296 295 295 293 292 292 292 291 291 291 291 291 290 290 290 289 288 288 287 289 288 287 287 288 287 288 287 286
315 316 316 315 312 311 310 308 305 303 301 298 297 296 296 295 293 292 291 291 290 290 290 289 289 289 289 289 289 289 288 288 288 288 287 287 286 287 287 287 287 286
311 311 310 310 309 309 308 306 303 301 299 298 295 294 293 292 292 291 291 290 290 290 289 289 288 288 288 288 288 288 288 288 287 287 287 286 286 286 286 286 286 285
307 307 307 306 306 305 303 301 299 298 295 293 294 292 292 292 291 290 290 289 289 288 288 288 287 287 287 288 288 287 287 287 287 287 286 286 286 285 285 286 286 285
303 302 302 302 301 299 298 296 294 293 293 293 292 291 291 291 290 289 288 288 288 288 287 287 287 287 287 287 287 287 286 286 286 286 286 286 285 285 285 285 285 284
299 298 299 299 298 296 294 293 292 292 292 292 291 290 290 289 289 288 288 287 287 286 287 286 286 286 286 287 287 287 286 286 285 286 286 285 285 284 284 284 284 284
296 296 297 296 295 294 292 291 291 291 291 290 290 289 288 287 287 287 287 287 286 286 286 286 286 286 285 285 286 286 286 285 285 285 285 285 285 284 284 284 284 283
294 294 295 294 293 292 291 291 290 290 290 289 289 288 287 287 286 286 286 286 286 286 286 285 285 286 285 285 285 285 285 285 285 285 285 284 284 284 284 284 283 283
293 293 293 292 292 291 290 290 290 289 289 288 288 287 287 286 286 285 286 286 285 285 285 285 285 285 285 285 285 285 285 285 285 284 284 284 284 284 283 283 283 283
293 292 292 291 290 290 289 289 288 288 288 287 287 286 286 285 285 285 284 284 284 284 284 284 284 284 285 285 285 285 285 285 284 284 284 283 283 283 283 283 282 282
291 290 290 289 289 289 288 287 287 287 286 286 286 285 285 285 285 284 283 283 283 283 284 284 285 285 285 285 285 285 285 284 284 283 283 282 282 282 282 282 281 282
290 289 289 289 288 288 287 287 286 285 285 285 285 284 284 283 283 283 283 283 282 283 284 285 285 285 284 286 286 285 285 284 283 283 282 282 281 281 281 281 281 281
289 289 288 288 288 287 286 286 285 285 284 284 283 283 283 282 282 282 282 282 282 283 284 285 285 286 287 288 287 285 284 283 283 282 282 281 281 280 279 279 280 280
289 288 288 288 287 286 285 285 284 284 283 283 282 282 282 282 282 282 281 281 282 283 284 285 286 288 289 288 287 285 283 282 282 282 281 281 280 280 280 279 279 279
288 288 288 287 286 285 285 284 283 283 282 282 282 282 281 281 281 281 281 281 281 282 283 284 286 289 289 287 286 285 284 282 281 281 280 280 280 279 279 279 279 279
287 287 287 286 286 285 284 283 283 283 282 282 281 281 281 280 280 280 280 280 281 282 283 284 286 288 288 287 285 285 284 282 281 280 280 279 279 279 279 279 278 278
287 287 286 285 284 284 283 283 283 282 281 281 281 281 280 280 279 279 279 279 280 281 282 283 285 288 288 286 285 284 283 281 280 280 279 279 279 279 279 278 278 278
286 286 286 284 284 283 283 282 282 281 280 280 280 279 279 279 279 279 278 278 280 281 282 282 285 287 287 286 285 284 282 280 279 279 278 278 278 278 278 278 278 278
286 286 285 284 283 283 282 282 281 280 280 279 279 279 278 278 278 278 278 278 278 280 281 282 283 286 286 285 284 283 280 279 279 278 278 278 278 278 277 277 277 277
285 285 284 283 283 283 282 282 281 280 279 279 279 278 278 277 277 277 277 277 278 278 280 281 281 284 286 285 283 282 279 278 278 277 277 277 277 277 277 277 277 277
285 285 284 283 283 283 282 281 280 279 279 279 279 278 277 276 276 276 275 275 276 277 279 279 280 283 285 284 283 281 279 278 277 277 277 277 276 276 277 276 276 277
284 284 284 283 283 282 282 281 279 278 277 278 277 277 276 276 276 276 275 275 275 276 277 278 279 281 283 284 283 281 280 278 277 277 276 276 276 275 274 275 276 276

ECMWFNIL_sfc_thetae_108.txt.gz
Theta_e
329 330 330 329 328 328 327 327 326 324 320 319 317 317 317 318 315 314 314 313 313 312 311 312 313 311 311 310 310 308 306 305 302 302 302 301 300 300 300 300 299 297
328 329 329 328 327 327 327 327 326 323 321 319 319 320 318 315 312 311 309 308 309 312 312 311 311 310 309 307 305 303 302 301 300 300 299 299 298 299 298 298 297 296
327 328 327 326 326 326 327 327 326 324 323 322 320 320 314 312 309 308 306 307 308 310 313 312 308 308 308 306 304 302 301 299 298 298 297 297 296 296 296 296 295 296
325 326 326 326 326 326 327 325 325 323 322 319 319 314 310 309 308 305 305 305 308 310 312 307 307 306 305 303 302 300 299 297 297 297 296 295 296 295 295 294 294 294
324 325 326 326 326 326 326 324 323 321 317 317 314 308 306 304 305 303 303 304 304 304 304 305 305 303 302 301 299 297 296 295 295 295 294 293 294 294 293 293 292 292
323 324 324 324 324 324 323 322 321 318 315 313 307 306 304 304 303 301 302 302 302 303 303 302 301 300 299 298 297 296 294 294 294 294 293 292 292 292 293 293 292 291
320 321 322 323 323 323 322 321 319 315 314 312 307 304 304 302 302 301 301 300 301 301 300 299 298 297 297 296 296 295 295 294 293 293 292 291 291 291 292 292 291 290
318 319 320 320 320 321 319 318 316 314 311 307 305 300 300 300 300 300 300 299 300 300 299 298 297 296 295 295 294 294 293 293 293 293 292 291 291 290 291 291 290 289
315 314 315 315 315 313 313 311 311 308 305 305 300 297 298 298 298 298 299 299 299 298 298 296 296 295 295 295 294 293 292 292 293 292 291 291 290 290 289 290 290 289
311 310 309 309 310 308 307 305 303 301 301 302 298 297 297 295 296 296 297 297 297 296 296 295 294 293 293 293 293 292 292 291 292 292 292 291 291 289 289 290 289 288
307 307 307 306 306 304 302 299 298 298 298 299 298 298 295 294 295 295 296 297 296 295 294 293 293 292 292 292 292 292 292 291 291 291 291 290 290 289 288 289 288 287
304 304 304 304 302 299 297 296 296 297 297 296 298 296 295 293 294 294 295 296 295 294 293 292 291 291 291 291 291 291 291 291 291 290 289 289 288 288 288 288 287 287
301 302 302 300 298 296 295 294 294 294 294 295 295 295 295 292 293 294 294 294 293 292 291 291 290 290 290 290 290 290 290 290 289 289 288 288 287 287 287 287 287 286
299 298 297 296 295 294 294 294 294 293 293 293 292 293 293 293 292 292 292 292 292 291 290 290 289 289 290 289 290 290 289 289 289 288 287 287 286 286 286 286 286 285
295 294 295 295 293 293 293 293 293 293 292 291 291 291 292 291 291 291 290 290 289 289 289 289 289 289 290 289 289 289 289 289 288 287 287 286 285 285 285 285 285 285
296 294 293 292 291 292 293 291 291 291 291 291 291 291 291 290 289 289 289 288 287 287 288 289 289 289 287 288 289 289 289 289 288 288 287 286 285 284 284 284 284 284
293 293 293 291 292 291 290 290 290 289 289 289 289 288 288 288 288 288 287 287 287 287 287 288 288 287 287 289 289 289 288 288 287 287 287 286 285 284 283 282 283 283
291 290 292 291 290 290 289 289 288 288 288 288 287 287 286 287 287 287 286 287 287 287 287 287 287 287 288 288 288 288 288 288 287 287 286 285 284 284 283 283 282 282
291 290 290 290 290 289 289 288 288 287 286 286 286 286 286 286 286 286 286 286 286 287 287 288 287 288 289 288 288 287 287 287 287 286 285 284 284 283 283 282 282 282
290 290 290 290 289 288 287 287 287 287 286 286 286 285 285 285 285 285 285 285 286 287 287 288 288 288 289 288 287 287 286 286 286 285 284 283 283 283 282 282 282 282
290 290 290 289 289 287 286 286 286 286 285 285 285 285 285 285 284 284 285 285 286 287 288 288 288 288 288 287 287 287 286 285 285 284 283 283 282 282 282 282 282 281
291 290 289 289 288 287 286 286 286 286 285 285 285 285 285 285 285 285 285 285 286 287 287 288 288 288 287 287 287 286 285 284 284 283 282 282 281 281 281 281 281 280
291 290 289 287 287 286 286 286 286 285 285 285 285 285 284 284 284 284 284 285 285 286 286 287 287 287 287 286 286 286 284 283 283 282 282 281 281 281 280 280 280 280
291 290 288 287 286 286 286 286 286 285 285 285 284 284 283 284 283 283 284 285 285 285 286 286 286 286 286 286 286 285 283 283 282 282 281 280 280 280 280 279 279 279
290 289 288 287 287 287 286 286 285 285 284 284 284 284 283 283 282 282 282 284 285 285 285 286 286 285 286 286 285 284 283 283 282 282 280 279 279 278 279 279 278 279
289 288 288 287 287 286 286 286 285 284 283 283 284 283 282 282 281 282 281 282 283 284 284 285 285 285 285 285 284 284 283 282 282 281 280 279 279 278 277 277 277 277

ECMWFNIL_sfc_thetae_111.txt.gz
Theta_e
329 329 329 329 329 330 330 329 329 329 328 328 324 324 322 322 322 320 320 320 319 317 317 317 317 317 317 317 316 316 313 310 311 310 309 307 305 304 303 302 302 300
328 328 328 329 329 330 330 330 329 329 328 328 326 326 324 323 321 320 318 318 316 315 314 315 316 316 315 314 314 313 310 309 306 306 305 303 302 303 302 301 299 298
328 328 328 329 329 330 330 330 330 329 328 327 326 325 323 323 321 320 319 317 315 314 313 314 314 313 313 312 311 308 306 304 302 303 302 301 301 300 300 298 297 297
327 328 328 329 330 330 330 329 328 328 328 327 325 324 323 321 319 318 318 311 315 314 313 313 312 311 309 307 306 305 304 302 301 301 299 298 298 298 297 297 296 295
326 327 328 328 330 330 329 328 327 327 326 326 325 324 320 318 316 316 314 315 315 313 313 310 311 310 308 306 305 302 301 299 299 298 297 296 296 296 296 295 294 293
326 326 327 329 329 328 327 326 326 326 326 325 325 321 319 316 313 312 312 312 311 310 308 308 308 307 306 304 302 300 298 297 297 297 295 294 294 294 295 294 293 292
326 327 327 327 327 327 326 327 326 324 325 324 322 317 317 313 311 310 309 309 308 307 306 305 305 304 303 301 299 297 296 296 295 294 293 292 292 293 293 292 292 291
323 324 325 325 325 325 325 326 325 323 322 320 319 314 312 311 309 308 307 307 307 306 305 305 304 302 300 299 297 295 295 296 294 293 292 291 291 290 292 292 291 290
320 321 322 321 322 322 322 321 321 319 318 316 314 310 308 310 308 307 306 306 305 304 304 303 303 300 299 298 295 294 293 294 293 292 291 290 289 290 290 291 290 289
316 317 317 318 318 319 319 317 315 313 311 312 309 306 305 303 304 305 304 305 304 302 302 301 300 299 297 296 295 293 292 292 292 291 291 290 290 290 290 290 289 288
311 312 313 314 315 314 313 310 308 306 306 307 305 303 303 301 299 300 301 302 301 301 300 300 299 298 297 295 293 292 292 291 291 291 290 290 290 289 289 290 289 288
309 308 310 311 310 307 306 303 301 301 302 300 301 301 299 299 300 299 299 299 300 300 299 299 298 297 295 293 292 292 291 291 291 291 290 290 290 289 289 289 289 288
307 307 306 304 304 301 298 297 298 297 298 298 297 298 297 296 297 298 297 298 299 299 298 297 296 295 293 292 291 291 290 290 290 289 289 289 288 289 288 288 288 287
307 304 303 301 298 297 297 295 295 295 296 295 296 297 297 297 297 297 295 295 294 295 296 295 295 293 292 291 291 290 290 289 289 288 288 287 287 287 287 287 287 287
302 301 301 298 295 295 294 294 294 294 294 294 294 295 296 297 298 298 296 295 293 293 293 293 293 292 291 290 290 289 289 289 288 288 287 286 286 286 286 286 286 286
297 294 294 293 294 294 293 293 293 293 293 292 293 293 293 292 293 294 295 295 293 292 292 292 291 291 288 290 290 289 289 289 288 287 286 286 285 285 284 285 285 285
294 293 292 292 293 292 292 292 292 292 291 291 291 291 291 291 292 292 291 292 292 291 290 290 290 289 288 291 291 291 289 288 287 286 286 285 284 284 283 283 283 282
293 293 292 292 291 291 291 291 290 290 291 291 291 290 289 290 290 291 291 291 291 290 289 289 289 288 290 291 291 291 289 288 287 286 286 285 284 284 283 283 282 281
292 291 292 292 291 290 290 290 289 289 289 289 290 290 289 289 289 289 289 289 289 289 288 288 287 289 290 291 290 290 290 288 287 286 285 285 284 284 283 283 282 282
291 291 290 292 291 290 290 289 289 289 289 288 289 288 288 288 288 288 288 288 288 288 287 287 287 288 290 290 290 290 290 288 286 286 285 285 284 283 283 283 282 282
291 291 291 290 290 289 288 288 289 288 288 288 288 287 287 287 288 287 287 287 287 287 287 286 286 289 290 290 290 290 291 288 286 285 284 284 284 283 283 283 282 282
292 291 291 290 289 288 288 288 288 288 287 287 287 287 287 287 287 287 286 286 287 287 286 286 286 289 289 289 290 290 289 286 285 284 283 283 282 282 282 282 282 282
292 291 290 288 288 287 287 287 287 287 287 287 286 287 286 286 286 286 286 286 286 286 286 286 286 288 289 289 289 289 287 285 284 284 283 282 282 282 282 281 281 281
292 291 289 288 287 287 287 287 287 287 286 286 286 286 286 286 286 286 286 286 286 286 287 286 286 287 288 289 289 288 286 284 284 283 282 281 281 281 281 281 281 282
292 291 289 288 287 287 287 287 287 286 286 286 286 286 286 286 286 285 285 286 286 286 286 286 286 286 288 288 288 287 285 284 284 283 281 281 280 280 280 280 280 280
290 289 288 288 287 287 287 287 287 286 285 285 286 286 285 285 285 285 285 285 285 286 286 286 285 285 286 288 287 287 286 284 284 282 281 280 280 279 279 279 279 279

ECMWFNIL_sfc_thetae_114.txt.gz
Theta_e
326 326 326 326 326 326 326 326 326 326 326 326 325 325 325 325 323 323 322 322 321 321 320 320 320 319 317 316 315 313 311 309 309 307 306 304 303 302 300 297 296 295
326 325 324 325 325 325 326 327 326 326 326 326 325 325 324 323 322 322 322 321 319 319 319 318 317 316 316 315 313 311 308 307 306 305 305 302 300 299 297 296 295 294
326 325 324 324 325 325 325 326 327 327 326 326 325 323 322 321 321 321 321 320 318 316 316 316 315 313 313 313 312 309 307 306 304 302 302 299 298 297 295 294 293 292
325 325 325 324 325 325 325 325 325 326 325 325 325 324 323 321 320 319 318 314 317 314 314 313 313 312 312 311 310 306 307 305 302 300 298 297 297 295 293 292 291 290
323 324 324 324 324 324 324 324 324 324 325 325 325 325 322 321 320 318 315 313 314 312 312 312 311 310 309 308 306 304 302 299 298 297 296 295 294 293 292 291 289 289
320 322 321 322 322 322 322 323 323 323 323 323 324 323 323 321 319 317 314 312 311 311 311 310 309 307 306 305 303 301 298 296 296 295 292 291 291 291 292 290 288 288
317 317 318 319 318 320 321 321 322 321 323 324 319 321 320 318 316 316 314 312 311 310 310 309 307 305 304 302 299 297 295 295 293 292 290 289 289 289 288 288 287 287
312 313 315 317 318 316 319 319 320 319 320 317 317 316 316 316 315 314 312 311 310 309 309 308 307 305 303 300 297 295 294 294 291 290 288 288 288 287 287 288 287 287
312 312 313 312 312 312 313 315 315 315 315 316 315 312 313 313 312 311 310 310 309 308 308 306 305 303 301 299 296 295 293 292 290 288 288 287 287 287 287 287 286 286
309 309 309 309 311 312 312 312 311 312 312 314 312 310 310 307 309 309 308 307 307 305 305 304 302 300 299 297 295 293 292 291 288 288 287 287 287 287 287 286 285 285
306 307 310 311 313 312 311 309 308 307 309 312 309 308 308 306 305 305 306 306 305 305 304 302 301 299 298 295 293 292 291 290 288 287 286 286 286 287 287 285 285 285
305 305 306 308 309 307 308 306 305 304 306 305 307 308 304 304 305 303 304 304 303 303 303 301 299 298 296 294 292 290 289 288 287 286 286 286 286 286 286 285 285 285
303 303 303 303 303 304 303 301 301 299 301 302 300 303 302 301 299 301 301 303 302 301 300 298 297 296 294 292 291 290 289 287 286 286 286 286 286 286 286 285 285 285
300 300 300 300 298 296 297 295 295 294 295 295 294 299 298 298 299 299 298 298 299 300 299 297 297 295 293 291 290 289 288 287 287 286 286 285 285 285 285 285 285 285
299 300 298 295 294 295 294 294 294 293 293 293 293 293 295 296 297 297 296 296 295 295 295 295 296 295 293 291 289 288 287 287 286 286 285 285 284 284 284 284 284 284
296 296 295 293 293 293 292 292 292 292 292 293 293 293 293 293 294 294 295 296 295 294 294 294 294 294 290 291 290 288 287 287 286 285 285 284 284 283 283 283 283 283
292 291 290 291 291 290 290 291 291 290 291 291 291 291 291 291 292 293 293 293 294 294 294 294 294 293 290 292 292 291 288 286 285 285 284 284 283 283 282 282 282 282
290 290 290 289 289 290 290 289 289 289 290 290 289 290 290 289 291 292 292 291 291 291 292 293 293 290 292 292 292 291 289 286 285 284 284 283 283 282 282 282 281 281
290 290 290 289 289 289 289 288 288 289 289 289 289 289 288 290 291 290 290 290 290 290 290 290 289 290 292 292 291 291 290 287 285 284 283 283 282 282 282 281 281 280
290 290 290 289 289 288 288 288 288 288 288 288 288 288 289 289 288 289 289 289 290 290 289 289 288 289 292 292 291 291 290 287 284 284 283 282 282 282 282 281 280 280
289 289 289 289 288 288 288 288 288 288 288 288 288 288 288 289 289 288 289 288 288 288 288 287 287 290 291 291 291 291 290 287 284 284 283 282 282 282 281 281 280 280
290 289 289 289 288 288 287 287 287 287 287 287 287 287 287 288 287 287 287 287 288 288 287 287 287 290 291 291 291 291 290 284 283 283 282 282 281 281 281 281 281 280
290 289 288 288 287 287 287 287 287 287 287 287 287 287 287 287 287 287 287 287 286 287 287 286 286 288 290 290 290 291 288 284 283 283 282 281 281 281 281 280 280 280
290 290 288 287 287 287 287 287 287 287 287 287 287 286 287 287 286 286 286 286 286 286 287 286 286 287 289 290 290 290 286 284 283 282 281 281 280 280 280 280 280 281
290 289 288 287 287 287 287 287 286 286 286 286 287 286 286 286 286 286 286 286 286 286 286 286 286 286 288 289 290 289 286 283 283 282 280 280 279 279 279 279 279 281
289 288 288 287 287 287 287 287 286 286 286 286 286 286 286 286 286 286 285 286 286 286 286 286 286 286 287 289 289 289 287 283 282 281 280 279 279 279 278 277 278 279

ECMWFNIL_sfc_thetae_117.txt.gz
Theta_e
326 326 326 325 325 325 325 325 325 324 324 325 324 325 325 326 323 324 323 323 322 323 322 321 320 321 320 319 318 317 316 315 312 310 310 308 306 304 302 298 296 297
326 325 323 324 324 324 325 325 325 324 324 325 325 325 325 323 323 323 322 322 320 321 321 320 319 321 319 318 317 316 314 312 311 308 308 306 305 303 301 297 295 293
326 325 324 323 324 324 324 324 324 324 324 325 325 324 324 321 322 321 322 321 320 319 319 319 319 319 318 317 315 314 311 310 310 306 307 306 304 304 300 296 294 293
325 325 325 324 324 324 324 323 323 324 324 323 323 323 323 321 320 320 320 315 320 319 318 317 318 317 316 315 313 312 311 311 310 306 305 302 301 300 296 294 292 291
324 324 325 324 324 323 322 323 323 323 322 323 321 319 318 318 318 317 317 316 317 316 314 314 314 314 314 313 312 310 309 308 304 304 303 300 297 297 293 292 291 289
320 323 323 322 322 321 320 321 322 321 321 319 320 317 319 319 318 316 314 314 313 313 312 311 311 312 313 312 311 310 307 304 302 302 301 299 295 294 293 291 290 288
317 317 318 319 316 318 318 319 319 316 319 320 316 318 318 317 317 317 316 314 312 310 311 311 312 311 311 311 309 307 305 304 300 300 299 296 294 291 289 289 288 288
313 311 315 315 315 315 315 316 316 316 316 313 315 316 315 316 316 317 316 315 313 312 311 311 311 311 309 308 306 303 301 300 298 298 296 294 292 291 288 288 287 286
307 308 308 308 311 310 311 312 312 311 312 315 314 313 313 315 316 315 314 314 313 312 312 310 310 308 307 307 305 303 300 299 297 297 295 292 291 290 288 286 286 286
303 300 302 302 306 304 306 305 307 308 309 313 313 313 314 313 314 315 313 313 312 310 310 309 308 307 305 304 304 302 300 299 296 295 294 292 291 289 287 286 286 285
302 303 304 302 302 300 302 302 303 305 307 312 311 311 312 311 310 311 312 311 311 310 309 308 307 306 304 303 302 300 300 298 295 294 293 291 291 289 288 286 285 285
302 303 304 303 302 301 300 302 305 306 308 307 310 312 309 309 311 309 309 310 309 309 309 308 307 305 304 302 300 297 297 296 294 293 292 291 289 288 287 286 285 285
298 299 299 300 300 300 299 300 302 302 304 306 304 308 308 307 306 307 306 309 309 308 308 307 305 303 302 300 297 295 295 293 292 291 290 289 288 287 287 286 285 285
295 298 299 299 298 299 299 299 299 300 303 302 300 306 306 307 308 308 307 307 308 307 307 305 303 301 299 297 295 293 292 292 291 290 289 288 287 287 286 285 284 285
296 295 293 292 294 296 296 297 297 296 296 296 296 298 302 302 303 303 301 301 299 301 300 299 300 300 298 295 293 292 292 290 290 289 288 287 286 285 284 284 284 284
295 296 297 294 294 294 293 293 293 293 294 293 294 295 295 295 296 296 295 297 298 297 296 296 297 297 292 293 293 293 292 291 289 288 287 287 286 285 284 283 283 284
295 295 294 294 293 290 290 290 291 290 291 292 292 292 292 291 291 293 292 293 294 294 294 294 296 296 292 294 294 293 292 290 288 287 287 286 285 285 284 283 283 283
293 292 292 292 291 291 290 289 288 289 289 289 289 290 289 289 291 292 292 291 292 292 293 293 295 293 294 294 294 293 291 289 288 287 286 286 285 284 284 283 283 283
291 291 291 290 290 290 289 288 288 288 288 289 289 288 288 290 291 291 291 290 291 292 292 292 292 293 293 293 293 293 292 290 288 287 286 285 285 284 283 283 282 282
290 290 290 289 288 288 288 288 288 289 288 288 288 288 289 289 289 290 290 290 291 292 292 290 291 290 293 293 292 292 292 290 287 286 285 285 284 284 283 282 282 282
290 290 289 288 288 288 288 288 288 287 288 288 288 288 289 290 289 289 290 289 289 289 290 289 290 291 292 293 292 292 292 289 286 286 285 284 283 283 283 282 282 282
289 289 288 288 287 287 288 288 288 288 288 287 287 287 288 288 288 289 288 288 288 288 289 289 287 291 292 292 292 292 291 287 286 285 284 283 282 282 282 282 282 281
289 289 288 288 287 287 287 287 287 287 287 287 287 287 287 287 288 287 288 288 287 288 289 289 287 289 291 291 292 292 290 286 285 285 284 283 282 282 282 281 281 281
289 289 288 287 287 287 287 287 287 287 287 287 288 287 287 287 287 287 287 287 287 287 288 287 286 287 290 291 291 291 289 286 285 284 283 282 281 281 280 280 280 281
289 289 288 287 287 287 287 287 287 286 286 286 287 287 286 286 286 286 286 286 286 286 286 287 286 286 289 290 291 291 288 285 285 284 282 282 281 280 279 279 279 281
289 288 287 287 287 286 286 286 286 286 286 286 286 286 286 286 286 286 286 285 285 286 286 286 286 286 287 290 290 291 289 285 285 283 282 281 281 280 279 278 279 279

ECMWFNIL_sfc_thetae_120.txt.gz
Theta_e
325 325 324 324 325 325 325 325 325 324 324 325 324 325 325 325 323 324 323 324 323 324 324 323 321 321 320 319 318 318 317 317 317 316 316 316 315 313 309 307 305 305
325 324 322 323 323 323 323 324 324 324 324 324 325 325 325 324 324 324 324 323 322 322 323 323 322 321 320 319 318 318 318 317 317 315 316 314 314 312 311 307 305 304
324 324 324 323 323 323 323 323 323 324 324 324 323 323 323 321 323 322 323 323 322 321 321 322 321 320 320 320 319 319 319 317 316 313 313 313 311 309 309 306 303 301
323 324 324 324 324 323 323 323 323 323 323 322 322 321 321 320 321 320 321 316 321 320 320 320 321 321 320 320 319 319 319 318 317 313 312 310 309 308 307 303 301 298
323 323 324 324 324 323 322 322 322 322 322 322 321 319 317 318 318 319 319 318 319 320 319 319 320 320 319 319 318 318 316 316 313 311 311 309 306 305 303 300 297 296
320 322 322 323 323 322 321 321 321 321 321 320 321 317 319 319 318 318 317 316 316 317 318 318 318 319 318 318 317 317 314 312 309 309 308 306 301 300 301 299 298 296
318 318 319 321 320 321 321 321 321 318 320 320 316 318 318 317 317 317 317 316 315 315 317 317 316 316 316 316 315 314 312 312 308 307 307 305 302 298 298 297 296 295
315 312 315 316 317 318 318 319 319 318 318 315 316 318 316 318 317 317 315 315 315 316 316 316 316 317 314 314 312 312 310 310 307 305 306 305 302 301 297 297 296 295
308 309 310 310 313 314 314 315 315 313 313 315 315 315 313 316 316 315 314 314 314 315 316 315 315 315 314 313 313 312 310 307 306 305 305 304 300 300 297 294 292 292
304 302 303 305 308 309 309 309 310 310 310 312 314 313 313 312 313 315 314 314 315 314 314 314 313 312 310 309 310 308 308 307 305 304 305 304 301 299 295 292 292 291
301 301 303 303 305 304 305 304 304 305 305 309 309 310 311 311 311 313 314 315 315 314 313 312 311 311 310 308 308 308 308 307 305 304 304 303 301 299 294 293 292 292
299 299 302 303 302 299 299 298 300 301 304 305 308 312 309 311 313 312 313 314 314 314 313 312 310 309 308 308 308 306 306 306 304 302 301 300 298 296 293 292 291 290
300 301 300 299 298 298 297 296 298 299 303 307 306 310 310 310 309 311 310 312 313 312 311 311 311 309 308 306 306 305 304 302 298 296 296 295 294 293 292 291 291 290
298 296 295 295 295 296 296 297 297 298 299 301 300 306 307 308 309 309 308 307 310 310 311 309 307 305 305 306 305 303 300 297 295 294 293 292 290 290 290 290 289 288
293 293 293 294 294 296 297 297 297 297 297 297 296 299 301 302 303 303 302 302 301 302 303 303 305 305 303 303 303 300 298 297 295 293 292 291 290 289 288 288 288 287
291 292 292 291 293 295 294 293 294 294 294 295 295 295 296 296 297 298 298 299 299 297 297 299 301 302 297 298 298 299 297 296 294 293 292 291 289 288 287 287 287 286
292 293 293 294 293 292 290 292 292 291 292 293 293 293 293 292 293 295 294 294 296 297 296 296 298 298 295 297 298 296 295 294 293 292 291 290 289 289 288 287 286 286
293 293 293 293 293 292 290 289 288 289 290 290 290 291 291 290 293 293 293 292 293 293 293 292 292 294 295 295 296 296 294 293 292 291 290 289 289 288 288 287 286 285
291 291 291 291 291 290 289 288 289 289 289 290 291 289 288 290 290 290 291 290 291 292 292 291 291 293 295 295 295 295 294 293 291 290 289 289 288 288 288 287 286 285
291 291 291 291 290 289 288 288 288 289 289 288 287 287 288 289 288 289 289 289 290 290 291 291 291 292 294 294 294 294 294 292 289 289 289 288 288 288 287 286 285 284
291 290 290 289 288 288 287 288 288 289 287 287 287 288 288 288 288 289 289 289 289 290 290 290 290 291 293 293 293 294 293 291 288 288 288 287 286 286 285 285 285 285
290 289 288 288 287 287 287 288 288 288 287 287 287 287 287 287 287 287 288 288 288 288 289 289 289 291 292 292 293 293 293 289 288 287 287 286 286 286 285 285 285 284
289 289 288 287 287 287 287 287 287 287 287 287 287 287 287 287 287 286 287 287 287 288 288 288 288 289 291 292 292 293 291 287 286 286 286 286 284 283 284 283 283 282
289 288 288 287 287 287 287 286 286 286 286 287 287 287 287 286 286 286 286 287 287 287 288 288 287 287 290 291 292 292 290 287 286 286 285 284 283 282 282 282 282 282
288 288 288 287 287 287 287 287 286 286 286 286 286 286 286 286 286 286 286 286 286 286 286 287 286 286 289 291 291 292 289 286 286 286 285 284 283 282 282 282 281 282
288 288 287 287 287 286 286 286 286 286 286 286 286 286 286 286 286 286 285 285 285 285 286 286 286 285 287 290 291 291 290 286 286 285 285 284 283 283 281 281 281 281

ECMWFNIL_sfc_thetae_123.txt.gz
Theta_e
324 324 323 323 324 324 325 324 324 324 324 324 323 323 322 323 320 321 321 321 321 321 321 321 320 320 319 319 318 318 317 318 317 317 317 316 316 315 314 313 312 312
324 323 322 323 323 322 324 325 325 324 324 324 324 324 324 322 322 322 321 321 320 321 322 321 321 320 320 319 318 318 319 318 317 316 317 316 316 316 316 315 314 313
323 323 323 322 323 322 323 323 324 325 324 324 324 325 324 322 323 321 322 321 321 320 321 322 322 321 321 321 320 319 318 318 318 317 316 316 316 316 316 315 313 311
322 323 323 323 323 323 323 322 323 324 324 323 323 323 322 322 321 321 321 316 321 321 320 321 322 322 322 321 320 319 319 319 319 318 316 316 316 316 316 315 312 310
321 322 323 323 323 322 322 322 322 323 323 323 323 321 318 320 319 320 320 320 321 321 321 321 321 322 321 321 320 319 318 318 319 318 317 315 315 314 314 312 309 307
319 320 321 322 322 321 322 322 322 322 322 322 322 319 319 319 317 317 316 317 318 320 321 321 320 321 321 320 320 319 318 317 317 317 316 315 314 311 309 306 306 305
318 318 319 320 319 320 320 321 321 319 322 322 319 320 318 315 316 316 316 316 316 316 319 320 319 319 319 319 318 317 317 317 316 314 314 313 312 310 307 306 305 304
316 311 315 316 317 318 318 320 320 320 320 317 318 319 316 317 316 317 315 316 316 317 318 319 319 319 318 317 316 315 315 315 314 311 310 310 307 307 304 303 303 303
310 310 311 311 314 316 316 317 317 314 313 316 316 316 313 317 318 318 317 317 316 316 317 317 318 317 317 316 315 315 314 312 311 310 310 311 310 309 307 302 300 300
307 306 305 306 308 310 311 312 312 311 311 313 315 315 315 315 316 318 316 316 315 315 315 315 315 315 315 314 316 315 314 315 313 311 311 311 310 309 306 301 300 298
304 304 306 306 307 307 307 307 307 307 307 310 312 313 314 313 312 313 314 315 315 314 314 314 314 314 314 313 313 314 314 314 313 311 307 304 302 302 300 297 297 297
301 301 303 305 305 305 304 303 303 302 305 304 306 311 309 310 312 312 312 314 314 314 314 314 314 313 313 313 311 310 310 308 304 304 304 306 305 304 301 298 297 297
299 300 301 302 302 303 301 300 301 301 302 304 302 304 306 307 308 310 309 312 313 313 313 314 314 313 312 311 310 308 306 305 304 302 300 299 298 297 296 295 295 294
299 298 298 299 299 298 299 297 296 296 299 301 300 303 305 306 308 309 310 309 311 311 312 311 311 310 308 307 307 307 305 304 303 301 298 295 294 293 293 293 292 292
296 294 295 295 294 296 296 296 295 295 294 294 295 299 301 302 303 304 306 307 305 305 305 303 305 305 304 304 305 305 304 303 302 298 294 294 292 291 290 291 290 291
293 293 294 294 295 295 294 293 293 293 293 293 294 294 295 295 297 298 300 300 300 298 299 299 300 301 298 299 299 302 301 299 297 294 293 292 292 290 289 289 290 289
292 293 293 293 292 290 289 291 292 291 292 292 292 292 293 293 293 295 294 294 295 295 295 296 298 298 297 298 298 299 297 296 295 293 291 291 291 292 291 289 288 288
293 292 293 292 291 290 289 287 288 290 291 291 291 291 289 289 291 291 291 291 292 292 292 292 293 294 297 297 297 297 295 295 294 292 291 291 291 291 290 288 288 287
292 293 292 291 290 289 288 287 288 288 289 290 290 288 288 289 289 290 289 289 290 291 291 290 291 293 295 295 296 296 296 295 293 292 291 291 290 290 289 288 287 286
291 291 291 289 289 288 288 288 288 288 287 287 287 287 288 288 288 288 288 289 289 290 290 289 290 291 294 294 294 295 295 294 291 292 291 290 290 290 289 288 287 287
291 290 289 289 288 287 287 287 288 287 287 287 287 288 288 288 288 288 288 288 288 289 289 289 289 291 293 293 294 294 295 293 289 289 290 289 289 288 288 288 288 288
290 289 289 288 287 287 287 287 287 288 287 287 287 287 286 287 287 287 287 287 287 288 288 288 288 291 292 293 293 294 294 289 288 288 288 288 287 287 287 287 287 287
290 290 288 288 287 287 287 287 287 287 286 287 287 287 287 287 287 286 287 287 287 288 288 287 287 290 291 292 293 294 291 287 288 287 287 287 286 286 286 285 285 285
290 290 289 287 287 288 288 287 286 286 287 287 288 287 287 286 286 286 286 287 287 287 288 288 287 287 290 291 292 293 290 287 287 287 286 286 285 284 284 284 284 284
290 290 289 288 288 288 288 287 287 287 286 287 287 287 287 286 286 287 286 286 286 287 286 287 286 286 289 291 292 292 289 287 287 286 286 285 284 283 283 283 282 284
289 289 288 288 288 288 287 287 287 286 286 287 286 287 287 286 286 286 286 286 286 286 286 286 286 286 287 290 291 291 290 287 287 287 286 285 284 284 283 283 283 282

ECMWFNIL_sfc_thetae_126.txt.gz
Theta_e
321 321 320 320 321 321 321 320 320 320 319 319 319 319 318 318 315 317 317 317 316 316 317 317 317 317 317 317 316 316 316 316 316 316 317 316 316 316 316 315 314 315
321 320 319 320 320 320 321 322 321 321 321 320 321 320 319 318 317 318 318 317 317 317 318 317 317 317 317 317 316 317 318 317 317 316 317 317 317 317 316 316 315 315
321 321 320 320 321 321 321 321 322 322 322 322 321 321 320 319 320 320 320 320 320 319 319 319 319 318 318 318 318 317 318 318 318 318 316 317 318 317 317 317 316 315
321 321 322 321 321 321 321 320 321 322 322 321 321 321 321 321 321 321 321 316 321 321 321 320 320 321 320 320 319 319 319 319 319 319 317 317 317 317 317 317 316 315
320 321 322 322 322 321 320 320 320 321 321 322 321 320 319 321 320 321 320 320 320 321 321 320 321 321 321 321 320 319 319 318 319 318 318 316 316 316 316 316 315 314
319 320 320 321 321 321 321 321 321 320 320 320 321 318 321 321 320 320 319 318 318 320 320 320 320 320 321 321 320 320 319 318 317 318 317 316 315 314 315 314 314 313
317 318 319 320 320 320 319 320 320 318 320 320 318 321 320 319 319 319 319 319 319 318 320 320 320 320 320 320 320 319 318 318 317 316 316 316 314 313 311 311 310 311
316 316 317 317 317 318 317 319 319 319 320 319 320 321 319 319 319 319 318 318 318 319 318 319 320 320 320 319 318 317 317 318 316 315 314 315 314 313 311 309 308 308
313 313 312 312 314 316 315 316 317 315 314 317 318 318 316 319 318 318 317 317 317 317 318 318 319 318 318 317 316 316 316 316 316 314 313 312 311 311 311 308 306 306
309 308 306 307 309 312 312 313 313 311 310 314 317 316 315 316 318 318 317 316 316 316 316 317 317 317 316 315 317 315 315 315 313 313 312 312 312 311 309 307 306 303
305 304 306 306 308 309 309 309 309 309 308 311 313 314 316 315 314 315 316 316 316 316 316 315 315 316 317 315 314 314 314 314 313 312 311 311 311 310 303 304 302 301
303 303 305 306 306 306 306 306 306 307 309 308 310 315 313 313 314 313 314 315 315 315 315 315 314 312 311 312 313 312 312 312 312 311 310 310 308 306 304 302 302 301
303 304 304 305 305 305 302 301 303 302 304 307 305 309 311 311 311 312 311 313 313 313 313 313 313 312 312 312 312 311 311 310 308 306 305 304 304 303 302 302 302 299
300 299 299 300 299 299 299 298 298 298 300 300 299 303 304 306 308 309 309 309 311 311 312 311 312 312 311 310 309 309 307 307 307 306 304 301 298 298 296 295 295 296
294 294 295 296 295 296 296 297 298 298 297 298 299 302 302 304 306 307 307 307 306 307 308 307 308 308 307 306 306 306 306 306 305 303 301 299 295 293 292 292 292 292
294 294 295 295 296 297 297 295 294 293 293 294 296 296 297 297 299 302 303 304 304 302 300 301 303 305 299 300 301 305 302 302 300 299 297 296 294 291 290 290 291 290
293 294 294 295 296 294 292 293 293 291 291 292 291 292 293 293 295 298 298 297 299 299 298 300 300 300 296 299 300 300 301 300 300 297 294 293 292 292 292 289 289 289
293 293 293 294 292 293 292 290 289 290 291 290 290 290 290 290 293 294 294 294 294 294 296 295 295 294 297 297 298 298 297 298 297 295 293 293 292 293 292 290 288 288
292 292 293 292 292 291 289 289 289 289 289 290 291 289 289 292 292 292 291 290 293 294 293 292 292 294 296 296 296 297 297 296 296 295 293 292 290 290 289 289 288 288
291 292 292 292 291 290 289 289 290 290 288 288 288 287 290 290 289 290 289 290 292 293 292 291 291 292 295 295 295 296 296 296 293 292 290 290 289 289 289 288 288 288
292 292 292 291 290 290 290 290 290 288 288 288 289 290 290 291 290 290 290 290 290 290 290 290 290 292 294 294 295 295 296 294 290 290 289 289 289 289 289 289 289 289
292 292 291 290 289 289 290 289 289 289 289 287 288 288 287 288 288 289 289 289 289 289 290 289 288 291 292 293 294 295 295 290 289 289 289 288 288 288 288 288 288 288
292 292 291 290 289 289 289 289 288 288 288 288 288 288 288 288 289 287 288 289 288 289 289 288 287 289 292 292 293 294 292 289 289 288 288 287 287 287 287 287 287 287
292 292 291 289 289 289 289 288 288 288 288 288 289 288 288 288 288 287 287 288 288 288 289 289 288 288 291 292 293 293 290 288 288 288 287 286 286 285 285 286 286 285
291 291 291 289 289 289 289 288 288 288 288 288 289 289 288 287 287 288 287 287 287 287 287 288 287 287 289 291 292 292 289 288 288 287 286 286 285 284 284 284 284 285
291 290 290 290 289 289 288 288 288 288 287 288 288 289 288 287 287 287 287 286 286 286 286 286 287 286 287 291 291 291 290 288 287 288 286 285 285 284 283 283 283 283

ECMWFNIL_sfc_thetae_129.txt.gz
Theta_e
322 322 321 321 322 322 322 321 322 321 320 321 320 320 320 321 320 320 319 319 320 320 320 320 320 320 320 320 320 320 320 320 320 320 319 319 319 319 318 318 318 318
321 321 320 321 321 321 322 323 322 322 321 321 321 322 321 321 320 319 319 319 318 319 319 320 319 319 319 319 319 319 319 319 318 319 319 318 318 319 318 318 318 319
322 321 321 320 321 321 322 322 323 323 322 322 322 322 322 321 320 319 320 319 319 318 319 319 319 319 319 319 319 318 318 318 318 318 317 318 318 318 318 318 318 318
322 322 322 321 322 322 322 322 322 322 323 322 322 322 322 321 321 319 320 316 320 319 319 319 319 319 319 319 319 318 318 318 319 319 317 317 317 318 318 318 317 317
322 322 322 322 322 322 322 321 321 322 322 322 323 322 321 320 320 320 320 319 320 320 320 319 320 320 320 319 319 318 318 318 319 319 318 317 317 317 318 318 317 316
322 322 322 322 322 322 321 321 321 322 322 322 322 322 321 321 321 321 320 320 319 320 320 320 320 320 320 320 319 319 319 318 318 318 317 317 317 317 317 317 316 315
321 321 321 322 322 322 322 322 322 321 322 322 322 321 321 320 320 321 321 320 320 319 320 320 320 320 320 320 319 319 319 318 318 317 317 316 315 315 316 316 315 314
320 320 321 321 321 321 321 322 322 321 322 321 320 322 321 321 321 321 321 320 320 320 320 320 320 321 320 320 318 318 318 319 318 316 315 316 316 315 314 314 314 313
317 317 317 317 318 319 319 320 321 320 320 320 320 320 320 321 321 321 320 320 320 320 320 319 320 320 320 319 318 318 317 317 318 317 316 315 314 314 314 314 312 311
314 314 312 313 315 317 317 318 319 318 317 318 320 320 318 319 321 320 319 319 319 318 318 318 318 318 318 318 319 317 317 318 316 316 315 315 315 314 314 313 311 310
310 310 310 311 312 314 314 315 315 314 313 315 318 318 319 318 317 318 319 318 318 318 317 317 317 317 318 317 318 318 317 317 316 315 314 314 314 314 307 311 309 308
307 307 308 310 310 310 311 311 311 311 312 313 316 319 317 317 317 316 317 317 317 317 317 317 317 317 317 317 316 315 315 315 315 314 313 313 313 313 313 311 310 310
306 306 308 308 307 308 306 306 307 309 310 311 311 314 316 315 315 315 314 316 316 316 316 316 317 316 316 316 315 314 313 312 312 312 311 311 311 311 310 309 309 308
304 304 305 306 305 304 305 305 305 305 307 308 307 310 312 313 313 314 314 313 315 315 316 316 316 315 314 313 312 312 312 311 311 310 310 309 307 307 306 305 304 303
300 300 300 301 301 302 303 303 303 304 303 304 304 306 308 310 311 312 312 311 312 313 313 312 313 312 312 311 311 310 311 310 310 309 308 307 304 300 298 299 298 298
296 297 298 299 300 301 301 300 300 299 300 299 301 302 303 304 305 307 308 309 308 307 307 308 309 311 302 302 303 309 309 309 308 306 305 304 300 297 294 293 294 293
294 295 296 297 299 299 298 297 298 296 297 297 298 298 299 299 299 301 301 303 305 306 304 305 306 306 299 301 301 302 306 307 305 304 302 299 298 297 295 292 290 291
293 294 295 296 295 296 296 295 295 294 295 296 296 295 295 294 296 298 299 299 301 301 302 302 303 298 300 300 300 300 300 304 304 302 299 297 296 296 295 292 291 290
293 293 294 294 294 294 294 293 293 294 294 294 294 294 293 294 297 297 297 297 298 299 299 298 298 297 298 299 299 299 299 300 302 300 296 295 295 295 294 292 290 289
292 292 293 294 293 293 293 293 293 295 294 294 293 291 293 294 294 295 295 295 296 297 298 296 296 294 296 297 297 297 298 299 299 297 295 294 294 293 292 291 290 290
292 292 292 293 293 292 292 293 294 294 292 292 292 292 293 294 293 293 292 293 293 293 294 294 295 293 295 296 296 297 297 297 294 293 292 291 291 291 291 291 291 291
291 291 292 292 292 292 292 293 293 293 292 290 290 291 291 291 291 291 292 291 291 292 292 293 291 292 294 294 295 296 296 293 292 291 291 290 290 290 290 290 290 290
292 292 292 292 292 292 292 292 292 291 290 289 290 290 290 290 290 289 290 291 290 290 292 292 290 291 293 293 294 295 293 291 290 290 289 289 289 289 289 289 290 290
292 293 292 292 292 292 292 292 291 290 290 289 291 290 289 289 289 289 289 290 290 290 291 292 290 289 291 293 294 294 292 291 290 290 289 288 288 288 289 289 288 286
293 293 293 292 292 292 292 291 290 290 290 289 290 290 290 289 289 290 288 288 288 289 288 291 290 288 290 292 293 293 291 290 290 290 288 287 287 287 286 286 286 286
292 292 292 292 291 291 291 290 290 290 289 289 289 290 290 289 289 289 288 288 287 287 288 289 289 289 289 292 292 292 291 290 290 290 288 287 287 287 286 285 285 286

ECMWFNIL_sfc_thetae_132.txt.gz
Theta_e
326 326 326 326 326 327 327 327 327 327 327 327 326 327 327 328 328 327 327 326 326 326 326 326 326 325 325 325 324 324 324 324 323 323 322 321 321 321 320 321 321 321
326 326 325 326 326 327 327 328 328 327 327 327 327 328 328 328 328 327 327 326 326 326 326 326 326 325 325 324 324 323 322 322 322 322 321 321 321 321 320 321 321 321
327 326 326 325 326 326 327 328 328 328 327 327 328 328 328 328 328 327 327 327 326 325 325 326 326 325 325 324 324 323 321 321 320 321 320 320 321 320 320 321 320 321
326 327 326 326 326 326 327 327 327 327 327 327 327 327 327 328 327 327 326 322 325 325 325 325 325 325 324 324 323 322 321 321 321 321 320 320 320 320 320 320 320 320
327 326 327 327 327 327 327 327 326 327 327 327 328 328 327 327 327 326 325 325 324 325 325 324 325 325 324 323 322 321 321 320 321 321 320 319 319 319 319 319 319 318
327 327 327 327 327 326 326 326 326 327 327 327 327 327 327 327 326 325 325 324 324 324 324 324 324 324 324 323 322 321 320 320 320 320 319 318 318 319 319 319 318 317
326 327 327 327 327 326 325 326 326 326 327 327 327 327 327 326 325 325 325 324 324 323 324 323 323 323 322 321 321 320 320 320 319 319 318 317 317 317 318 318 318 317
325 326 327 326 325 326 325 325 326 326 326 326 326 326 327 326 325 325 324 324 324 324 324 324 323 323 322 321 320 320 319 320 319 318 317 317 317 316 317 318 317 316
324 325 326 326 325 325 325 325 325 326 326 326 325 326 326 326 325 325 325 324 324 324 324 323 323 322 322 321 320 319 318 318 319 318 317 316 316 317 317 317 316 315
323 324 325 324 324 324 324 325 325 325 325 325 325 325 325 325 325 325 325 324 323 323 323 322 322 322 321 321 321 319 319 318 317 318 318 318 317 317 317 316 315 314
321 322 323 323 323 323 323 324 324 325 325 324 325 324 324 324 323 324 324 323 322 322 322 321 321 322 321 320 320 320 319 319 318 318 318 318 318 318 311 317 317 315
319 320 321 322 322 322 322 324 324 324 324 323 323 323 323 323 322 322 322 322 322 322 322 322 322 321 320 319 319 319 319 319 318 318 318 318 318 318 318 317 316 315
317 318 319 320 321 321 322 322 323 323 323 322 322 322 322 321 321 321 320 321 321 321 322 322 321 319 319 319 320 319 318 317 317 318 318 317 317 316 316 316 316 315
316 317 317 318 319 320 320 320 321 321 321 321 320 319 320 321 320 320 320 319 320 320 321 321 320 319 319 319 319 319 318 318 317 316 316 315 314 315 315 314 314 313
312 313 314 314 313 314 315 315 316 317 317 317 317 317 317 319 320 319 318 317 317 318 318 318 318 318 318 318 318 318 319 317 317 315 314 313 312 311 310 310 310 310
308 308 308 308 308 308 309 310 310 310 310 311 312 313 314 313 315 315 315 315 315 315 316 316 316 318 308 305 306 316 316 316 315 314 312 312 310 306 304 302 302 303
304 304 304 305 306 306 307 305 306 304 304 304 305 305 306 306 308 311 311 313 314 313 313 314 315 314 303 304 304 304 313 314 313 312 311 309 307 304 302 298 297 298
301 301 301 301 302 303 303 301 301 300 300 301 301 301 301 300 302 305 307 308 309 310 311 312 313 303 302 302 302 302 302 311 312 311 308 308 304 303 302 299 296 294
300 299 299 298 298 299 299 299 299 298 298 299 299 299 298 299 301 301 301 301 304 305 305 305 305 301 301 301 301 301 301 304 310 309 307 304 302 301 300 298 295 294
299 298 297 297 296 296 297 297 297 298 298 298 297 296 297 298 298 298 298 299 300 301 301 301 301 298 299 299 299 299 299 301 308 307 304 301 299 299 299 296 295 296
298 297 296 296 295 295 295 295 296 296 296 297 297 296 297 297 298 297 297 297 297 298 299 300 301 297 297 298 298 298 299 299 305 302 299 298 297 296 297 295 295 296
298 297 295 295 295 294 294 294 294 295 295 295 295 296 296 296 296 297 297 296 296 297 298 299 299 296 296 296 297 298 298 300 300 297 296 295 294 295 295 294 294 294
298 297 295 294 294 293 293 294 294 294 295 296 295 295 295 295 296 295 296 297 295 296 297 298 299 295 294 295 296 297 297 297 295 295 294 294 294 293 294 293 293 294
298 297 295 294 294 293 293 294 295 296 296 293 296 295 295 296 295 295 293 294 294 294 295 297 296 293 292 294 295 296 296 296 295 293 292 293 292 292 293 293 293 289
299 297 295 294 293 293 294 293 293 294 294 292 294 297 296 295 292 294 293 292 292 293 289 295 296 292 291 293 294 295 294 295 293 293 292 291 290 290 291 291 291 288
299 296 294 293 292 292 294 294 293 293 293 293 292 294 293 294 294 293 292 292 290 291 290 292 294 292 291 293 293 294 294 294 294 294 293 291 291 291 289 288 289 290

ECMWFNIL_sfc_thetae_135.txt.gz
Theta_e
328 328 327 327 328 329 329 328 329 329 329 329 328 328 328 329 330 329 328 328 328 328 328 327 327 327 327 328 327 326 326 326 326 326 325 323 322 322 321 321 322 321
328 327 327 327 327 327 328 329 329 328 328 329 329 329 330 330 330 330 329 328 328 328 328 328 327 327 327 326 327 326 325 325 325 326 325 324 323 323 322 321 321 322
328 328 327 326 326 327 327 328 329 329 328 329 330 329 329 330 330 330 329 328 328 327 327 328 327 326 326 326 326 325 324 324 324 325 323 323 322 321 321 321 321 321
327 328 327 327 327 326 327 327 328 328 328 328 328 329 329 330 330 330 329 325 328 327 327 327 326 327 326 326 326 324 324 324 324 324 323 322 322 322 321 321 320 320
327 327 327 328 328 328 327 327 327 327 328 328 329 329 328 329 329 329 328 328 327 327 327 326 326 326 326 325 325 323 323 322 323 323 322 321 321 321 321 320 319 319
327 327 328 328 328 327 327 326 327 327 328 327 328 328 328 329 328 328 328 327 327 327 326 326 326 325 325 325 325 323 322 322 322 322 320 319 320 320 320 320 319 318
326 327 327 328 327 328 327 327 327 327 327 328 328 328 328 328 328 327 327 327 327 325 325 325 325 325 325 324 323 323 322 322 321 321 319 319 319 319 319 319 318 317
324 326 327 327 327 327 326 326 327 327 327 328 327 327 328 327 327 327 327 327 325 325 325 324 324 324 324 324 323 322 321 322 321 319 318 317 317 316 317 318 317 316
323 324 325 326 326 326 326 326 327 327 327 326 326 326 327 327 326 327 327 326 325 324 324 324 324 324 324 324 323 322 321 321 321 319 317 316 315 315 315 316 315 315
322 323 324 324 325 326 326 326 326 326 326 326 326 326 325 326 326 326 326 326 324 323 323 323 323 323 323 323 323 322 321 321 320 319 318 317 316 316 316 315 314 314
320 321 322 323 323 325 325 325 325 325 325 325 325 325 325 325 325 326 326 325 324 323 323 322 323 323 323 323 323 322 321 321 320 319 318 317 317 316 310 315 315 314
318 320 321 322 323 324 324 325 325 325 324 325 325 324 324 324 325 325 325 324 324 324 323 322 322 323 323 322 322 321 321 320 320 318 317 317 317 316 316 316 315 315
317 318 320 321 322 322 324 324 324 324 324 323 324 324 324 323 324 324 323 323 323 323 323 322 322 321 321 321 320 320 319 318 318 318 317 317 317 317 317 316 316 316
315 317 319 320 321 322 322 322 323 323 323 323 323 323 323 323 323 322 322 320 321 321 322 322 321 320 320 320 319 319 318 317 317 316 316 316 316 317 316 316 316 316
313 315 317 318 319 319 320 320 321 321 322 322 322 322 321 321 322 321 320 319 318 319 319 319 319 319 320 319 318 318 319 317 317 316 315 315 315 314 315 315 315 315
310 312 313 314 314 314 315 316 317 318 318 319 319 320 319 316 317 318 318 318 317 317 317 318 318 319 309 306 307 316 318 318 317 316 315 315 313 312 310 309 312 313
307 308 309 310 310 311 311 310 312 311 311 311 312 313 314 313 312 314 314 316 316 316 315 316 317 316 305 306 305 306 314 317 316 315 315 314 313 312 310 305 304 304
306 306 306 307 307 307 308 306 304 304 305 306 306 305 306 303 305 310 312 313 313 314 314 314 315 305 305 304 304 304 304 313 316 315 314 313 312 312 311 307 304 302
304 304 304 304 305 304 303 301 300 300 300 301 301 302 298 301 305 305 307 308 310 311 311 312 312 305 304 304 303 303 303 306 315 315 313 312 311 309 306 304 302 301
303 303 303 303 302 301 299 298 298 298 299 299 299 299 299 300 300 301 302 303 306 308 309 309 308 303 302 302 302 301 302 302 311 313 312 311 308 306 305 303 301 300
303 302 302 301 300 300 299 297 296 297 297 298 297 298 298 299 299 299 300 300 301 302 303 305 307 300 300 300 300 300 301 301 308 309 309 307 306 303 302 302 301 300
302 302 301 300 299 298 296 296 295 295 295 296 296 296 297 298 298 299 299 299 299 299 299 301 302 299 298 298 299 300 300 302 304 306 305 302 300 299 299 299 298 298
303 301 300 300 298 297 296 295 294 294 294 294 294 294 295 295 297 297 298 298 297 297 298 299 300 297 296 297 297 298 299 301 301 300 299 298 298 296 296 296 296 297
302 301 300 298 298 296 295 295 295 293 293 293 294 294 294 295 295 296 296 296 296 296 297 298 298 295 295 296 296 297 297 299 298 298 296 296 294 293 293 294 294 291
300 300 299 299 297 296 296 294 293 292 292 292 294 295 295 296 294 296 295 295 295 295 291 295 297 295 294 295 295 296 295 297 297 296 296 295 294 293 291 292 292 289
299 298 298 297 296 296 295 294 292 291 291 292 294 295 295 295 295 295 294 293 293 292 292 294 295 295 295 294 295 295 295 296 296 296 295 294 293 293 291 290 290 291